GEFSSE_con_cape1000_222.txt.gz
Probability
35 68 94 97 97 94 94 87 87 81 90 84 81 84 84 87 87 87 87 87 84 84 84 84 87 87 87 84 87 84 87 87 77 81 74 71 71 74 81 77 77 68 81
45 61 97 97 97 94 94 94 90 87 81 87 87 87 87 84 87 90 94 90 87 87 84 87 87 87 90 87 84 81 81 81 77 77 71 68 68 71 71 81 74 71 77
58 65 90 97 97 97 97 94 94 90 90 87 90 94 90 87 87 90 90 94 90 87 84 84 87 90 87 87 87 81 77 77 74 68 55 52 58 71 74 74 68 74 77
55 58 71 94 100 94 94 94 90 90 94 90 94 90 90 94 94 87 87 87 90 90 84 84 77 84 87 81 81 81 74 74 74 48 16 23 39 68 71 68 68 68 71
52 58 87 100 100 100 97 100 97 94 90 87 90 90 94 94 94 94 90 90 90 90 84 77 74 74 84 74 77 84 71 71 61 23 13 10 39 68 68 65 68 61 58
61 71 84 100 100 100 100 100 100 97 90 90 90 90 90 94 90 90 94 90 90 90 84 77 71 71 71 65 68 65 68 61 26 13 10 23 45 68 68 65 65 61 65
58 77 87 97 100 100 100 100 100 94 94 94 94 94 94 94 94 94 94 94 90 84 71 65 65 61 65 68 71 71 68 61 16 6 6 26 48 71 68 71 68 65 61
65 71 90 97 97 100 100 100 100 94 94 90 90 90 90 90 97 94 90 87 77 74 71 71 61 58 61 65 74 68 68 52 13 13 10 23 65 71 68 68 71 61 55
58 71 77 84 90 97 100 100 100 100 94 90 87 87 84 84 87 94 87 87 74 68 71 61 45 42 42 58 71 74 65 58 6 10 13 29 68 71 68 65 58 65 65
42 58 58 65 71 84 87 97 90 94 90 90 87 81 84 90 84 87 84 87 77 77 71 58 55 48 48 58 65 71 68 39 10 10 10 45 71 71 68 65 58 58 65
29 42 45 45 39 52 65 90 84 84 87 87 87 90 81 39 42 65 74 81 71 68 68 61 58 58 52 48 68 74 48 13 6 13 13 52 77 81 74 65 61 65 65
26 23 26 23 26 39 48 58 55 65 58 48 48 48 29 19 10 42 77 87 74 65 65 71 71 68 48 16 23 48 10 10 13 13 23 77 77 77 68 68 68 65 58
19 19 26 23 19 19 26 32 26 26 32 26 29 26 19 13 16 19 23 42 39 55 32 42 58 39 23 6 3 10 10 13 3 6 32 77 77 81 74 74 65 68 61
32 26 29 19 19 13 26 29 32 26 19 16 26 16 6 10 10 6 13 13 13 13 13 13 13 6 3 3 3 6 3 6 3 10 29 77 77 77 71 65 71 71 58
39 42 42 45 32 32 32 39 45 39 35 19 26 26 13 13 6 6 16 16 16 19 16 13 6 6 0 10 3 10 10 6 0 6 23 68 77 77 74 58 61 65 55
48 58 52 42 45 45 42 42 29 32 32 29 23 16 26 19 10 6 16 13 10 10 16 6 13 10 10 6 3 3 3 3 3 6 13 58 74 74 74 65 61 55 58
55 61 61 61 48 48 39 35 39 32 29 29 29 19 23 26 16 10 10 10 19 16 16 13 10 6 6 6 6 6 3 0 3 10 6 10 32 71 71 71 68 65 58
65 61 58 68 55 45 45 39 35 35 39 35 35 32 26 23 19 13 19 16 16 13 13 16 10 3 3 3 0 0 0 3 3 6 6 3 3 16 48 68 71 77 65
65 58 61 65 68 65 58 52 55 45 42 45 39 39 32 32 26 13 16 16 16 13 6 10 10 6 3 3 0 0 0 0 3 13 10 3 0 3 10 42 81 77 74
55 58 61 65 65 68 58 55 52 48 52 45 39 35 39 32 35 23 19 23 19 16 16 10 10 6 3 3 10 3 0 0 0 3 3 3 6 3 0 13 35 58 74
65 58 61 65 68 65 65 61 55 52 52 45 42 35 39 35 39 32 26 16 16 16 10 13 10 6 6 3 3 0 0 0 3 3 3 3 6 13 6 3 3 3 19
65 61 61 68 61 61 61 58 45 45 52 42 48 45 48 39 42 35 29 26 23 23 19 13 16 6 6 3 3 0 0 0 0 0 0 3 3 3 10 10 3 3 3
58 65 68 74 71 74 61 58 48 45 45 48 45 39 39 45 39 35 29 26 19 23 19 23 19 10 10 3 0 0 0 0 0 0 0 0 0 0 3 6 6 3 3
61 68 71 77 74 74 74 65 55 52 39 39 42 35 42 45 39 42 32 32 19 19 23 23 23 13 10 6 0 0 0 0 0 0 0 0 0 0 0 0 0 0 0
65 68 71 71 71 71 71 65 61 52 35 26 42 35 42 42 42 42 32 32 32 29 26 23 19 16 10 10 0 0 0 0 0 0 0 0 0 0 0 0 0 0 0
71 74 68 68 71 74 74 68 68 55 35 32 35 45 39 42 39 39 48 39 35 29 29 19 16 13 13 10 6 0 0 0 0 0 0 0 0 0 0 0 0 0 0

GEFSSE_con_cape1000_228.txt.gz
Probability
10 39 90 87 84 87 90 94 90 84 87 87 90 87 87 87 87 87 90 87 90 94 84 90 84 81 81 81 81 81 77 77 74 74 68 65 65 68 71 65 65 45 71
26 55 90 87 90 90 94 94 94 90 87 84 84 87 90 90 90 90 87 87 84 81 84 90 87 90 84 77 81 77 81 77 77 74 68 65 68 71 71 65 55 55 65
35 52 71 90 90 87 87 90 90 90 90 87 87 87 90 84 94 87 87 84 81 84 84 84 84 77 77 77 77 74 77 77 71 65 55 55 61 71 68 65 65 68 61
42 48 61 87 94 97 94 94 90 84 90 90 90 90 94 94 90 90 94 94 87 84 84 77 77 71 77 77 77 74 77 71 61 48 39 52 55 68 68 68 68 61 61
29 45 74 87 90 94 97 97 87 87 90 90 90 90 90 94 90 90 87 87 84 77 81 74 71 71 71 71 74 71 71 68 52 39 29 35 58 68 68 68 68 58 61
26 55 87 90 87 90 97 97 94 87 90 87 87 87 94 94 94 84 84 84 81 71 81 71 74 71 68 61 61 58 55 55 35 23 32 35 52 68 65 65 55 61 58
32 52 77 90 94 97 97 97 97 90 94 94 90 90 94 94 90 87 90 84 81 74 71 74 68 61 65 58 58 65 61 48 19 19 32 32 48 71 65 68 61 58 61
39 55 74 97 97 97 97 97 97 94 90 90 94 94 94 90 90 90 90 81 81 74 71 71 68 68 61 68 71 61 61 48 26 23 32 42 58 65 61 68 71 65 58
52 52 61 71 81 94 97 97 97 94 94 90 90 90 90 90 90 90 87 87 77 81 68 65 61 65 55 58 61 65 61 48 16 19 19 42 58 65 55 61 61 55 58
48 45 42 48 65 77 84 97 97 94 90 90 87 87 84 84 84 84 87 81 74 74 68 65 58 55 58 65 65 58 58 39 13 16 26 45 71 71 68 61 65 61 58
35 35 39 39 48 58 71 87 87 84 87 84 81 84 58 32 35 52 71 68 71 65 61 68 58 68 71 68 65 68 45 10 10 16 29 48 65 65 68 65 65 61 61
32 35 26 29 35 45 65 58 48 58 42 39 32 32 26 10 16 42 61 74 68 68 65 74 74 61 42 19 48 45 6 10 13 13 23 58 68 68 68 68 68 65 65
23 35 26 23 29 29 26 29 26 26 23 23 23 19 13 6 6 13 13 23 19 42 26 35 35 26 29 13 13 6 10 13 10 16 23 61 77 71 71 68 68 61 71
16 26 19 19 16 19 23 23 26 26 23 19 19 13 6 6 6 13 10 13 6 13 10 13 10 13 3 0 6 10 10 6 10 19 32 68 74 68 68 74 68 55 61
16 16 16 19 16 13 16 13 19 23 16 13 10 10 6 6 10 10 6 6 10 10 10 3 6 10 6 6 6 16 16 10 13 23 26 52 77 77 68 61 61 55 58
13 16 13 16 16 10 10 10 13 16 16 10 10 6 6 6 10 6 6 3 3 6 6 10 6 6 6 13 13 10 23 16 13 19 19 35 68 71 68 58 61 52 52
3 13 16 13 19 13 10 13 13 13 16 6 10 6 6 6 6 6 6 3 6 3 6 6 6 6 6 3 3 3 16 10 6 6 13 19 42 71 68 58 52 55 58
19 13 13 32 19 6 6 10 16 19 10 10 6 6 10 13 3 6 6 3 6 13 10 10 6 10 3 3 0 0 3 0 0 3 6 13 16 26 55 58 61 65 52
23 23 19 29 29 19 10 13 13 19 13 16 13 13 6 13 6 6 6 6 10 13 13 13 13 6 3 3 3 3 0 0 3 6 10 6 6 6 19 39 65 74 65
29 23 35 29 35 23 10 16 13 16 16 19 13 13 13 13 13 6 6 6 6 13 13 10 6 3 3 3 3 3 0 0 3 10 3 3 3 10 16 13 45 45 68
32 29 35 39 29 19 26 23 23 13 13 16 16 13 13 6 23 10 10 6 10 10 13 6 3 3 3 3 3 0 0 0 0 3 3 0 3 16 19 16 16 23 45
32 32 35 42 35 32 29 32 19 16 16 16 19 13 13 19 23 19 13 13 6 10 6 6 3 3 3 3 6 6 0 0 0 0 3 0 0 3 3 10 10 10 10
32 32 35 35 42 35 32 29 29 19 19 19 19 13 10 19 16 19 13 13 13 13 13 10 6 3 10 0 0 3 0 0 0 0 0 3 3 3 0 0 3 6 6
39 39 32 26 29 32 29 29 29 32 32 23 10 19 16 13 23 16 13 16 13 13 13 13 13 6 6 10 0 0 0 0 0 0 0 0 0 0 0 0 0 0 0
48 45 35 29 32 29 26 32 32 29 23 10 16 19 19 16 16 26 23 13 13 13 13 13 16 13 10 10 10 3 0 0 0 0 0 0 0 0 0 0 0 0 0
39 48 45 35 32 32 35 35 26 26 26 16 13 23 16 19 19 19 32 23 16 13 13 13 16 16 10 10 10 10 3 0 0 0 0 0 0 0 0 0 0 0 0

GEFSSE_con_cape1000_234.txt.gz
Probability
13 35 71 77 84 87 87 84 77 81 84 87 90 90 90 90 90 90 84 84 87 81 71 74 68 77 77 71 65 61 61 65 58 61 65 55 52 58 61 45 52 45 61
13 42 77 84 94 94 87 84 87 87 84 87 87 90 90 90 90 87 84 84 84 81 74 74 74 74 71 68 68 68 71 61 58 58 58 52 52 58 55 45 58 58 58
19 42 55 90 90 90 84 81 84 87 84 84 87 90 90 90 90 90 87 87 84 81 77 74 77 77 77 81 71 68 68 71 65 55 52 45 48 58 58 55 61 65 65
23 45 71 90 90 87 87 84 90 90 90 87 90 94 94 87 90 84 87 84 84 84 77 71 74 74 74 74 71 68 68 65 45 45 39 42 35 58 68 68 65 65 61
26 42 84 90 90 87 87 87 87 90 94 94 90 90 90 87 87 87 84 87 87 84 74 74 68 71 68 68 68 58 58 48 39 29 32 42 52 74 71 71 61 58 55
19 32 74 87 94 94 90 84 87 87 90 90 90 87 87 87 87 81 81 87 87 77 71 74 74 61 61 55 61 61 58 52 45 19 26 32 55 71 68 58 52 55 52
26 48 65 84 100 97 87 90 84 84 90 90 90 87 87 87 84 81 84 84 81 84 81 77 68 52 61 58 58 58 45 45 35 29 32 32 58 74 65 55 61 61 58
32 42 65 77 90 97 94 97 84 87 94 90 90 90 87 84 77 77 74 81 81 81 71 71 58 55 48 52 52 48 42 39 23 16 26 42 48 71 61 58 65 65 55
35 45 48 58 74 90 90 87 87 90 90 90 90 87 90 84 77 81 77 74 71 68 65 52 58 58 48 55 52 42 39 39 26 10 16 39 52 61 65 61 61 61 55
35 39 42 39 52 68 74 87 87 81 84 87 81 84 81 74 74 74 81 74 65 61 61 55 61 58 55 61 48 42 42 35 16 13 13 45 55 55 55 61 58 58 58
39 45 45 42 55 52 48 65 77 74 74 81 71 74 74 52 35 58 61 68 68 65 61 58 65 55 55 58 52 45 35 32 23 19 35 52 58 52 55 58 61 61 61
35 45 52 35 42 39 35 65 61 61 74 65 65 61 55 55 39 29 52 68 68 65 65 61 58 52 52 42 39 42 29 19 26 23 39 61 65 61 58 65 65 58 61
29 32 45 48 61 52 55 45 65 68 77 61 61 71 68 48 35 48 61 61 68 55 45 58 48 32 39 45 42 29 23 19 26 29 45 61 68 58 68 68 65 61 61
23 42 42 61 81 81 58 48 55 55 55 52 74 58 55 61 52 52 71 55 61 61 68 52 58 39 39 32 29 32 26 29 32 39 74 65 74 68 61 61 61 55 58
29 35 48 71 81 84 90 68 45 48 45 61 68 68 65 48 58 52 68 81 61 58 55 61 58 58 52 42 39 32 39 39 39 48 58 61 74 68 61 61 61 52 52
29 39 48 65 74 84 87 84 71 55 84 55 55 61 68 55 65 71 71 87 74 74 55 65 55 71 58 52 48 48 45 39 48 45 45 55 55 61 65 68 68 55 48
35 45 58 68 71 74 74 81 74 65 71 61 68 68 74 71 77 68 68 68 68 77 77 74 68 68 65 58 61 55 55 55 29 35 52 55 55 52 55 55 65 58 48
48 68 65 42 61 77 77 84 71 68 77 74 71 68 74 74 74 77 74 58 74 81 77 87 71 71 71 58 58 55 68 77 39 39 35 45 61 48 52 55 55 61 52
65 81 74 71 77 77 81 84 84 87 81 81 71 77 74 74 74 74 74 77 74 71 71 61 65 68 65 58 39 55 48 55 61 35 35 39 52 58 58 55 52 61 52
71 77 77 81 84 84 87 90 87 84 77 77 71 74 74 74 74 77 65 74 68 65 68 81 74 77 71 61 26 42 55 52 55 48 35 42 61 45 48 45 55 58 68
74 77 81 81 87 87 94 87 84 81 77 77 77 74 71 71 68 74 68 81 77 74 74 55 68 71 61 61 45 32 45 32 39 45 48 48 45 45 48 61 55 48 52
77 77 84 87 87 90 90 90 94 77 74 74 77 84 74 74 71 65 84 71 71 77 68 68 74 58 48 55 48 32 23 29 48 13 32 48 35 48 55 45 65 68 52
81 84 84 87 84 84 84 87 87 90 87 77 74 81 81 74 65 71 81 74 81 65 68 71 77 61 48 55 42 39 26 32 39 23 29 42 48 58 42 52 52 58 61
77 77 81 84 87 84 87 87 90 90 90 84 84 84 87 81 81 71 71 77 84 68 77 68 65 68 65 65 61 65 45 39 35 39 23 19 39 52 52 42 39 65 61
77 77 81 84 87 87 90 90 90 90 90 77 81 90 87 81 77 77 84 81 84 77 71 71 68 71 61 55 52 48 39 55 39 45 32 26 26 42 48 48 52 52 61
81 77 81 77 84 87 87 90 90 87 87 87 84 84 90 87 81 77 74 77 81 81 77 74 71 65 71 71 68 52 52 29 39 26 29 42 42 35 35 45 39 42 58

GEFSSE_con_cape1000_240.txt.gz
Probability
19 35 87 90 94 90 90 84 90 90 90 94 94 90 94 94 90 97 90 81 81 74 74 77 71 68 61 71 71 65 58 58 68 65 68 68 58 65 71 68 45 42 58
23 35 87 90 94 90 84 84 84 87 90 94 94 94 90 90 87 87 84 77 81 77 74 71 68 68 68 71 68 68 61 61 65 65 61 61 61 74 68 55 61 45 55
29 42 77 87 90 90 87 90 87 84 87 90 90 87 87 84 84 84 84 81 77 68 71 68 65 74 71 68 65 65 55 61 55 55 61 35 48 65 61 55 61 65 61
23 48 65 84 87 84 87 90 87 87 84 90 84 81 84 87 84 87 87 87 81 81 61 65 65 65 68 61 61 52 52 48 45 55 48 23 29 61 65 65 65 61 65
48 61 84 84 81 81 84 87 84 84 87 84 84 87 84 84 87 84 84 87 81 81 77 68 71 68 68 55 52 55 48 48 61 52 42 35 45 65 61 55 48 61 61
48 55 74 84 87 87 87 94 94 94 90 84 84 87 84 84 84 84 87 90 84 81 74 61 65 58 52 52 45 45 45 52 61 39 55 42 55 68 58 52 48 48 58
39 52 74 84 94 90 87 90 97 97 87 87 87 87 87 87 84 81 84 84 81 81 71 58 61 58 52 48 45 48 58 65 52 42 55 48 65 77 61 55 58 48 55
39 48 77 87 90 94 87 84 87 94 90 94 84 81 84 84 84 84 81 77 74 68 71 65 58 55 45 45 42 48 55 58 35 26 42 48 71 71 68 61 55 58 45
32 35 55 81 81 87 90 84 90 94 90 90 84 81 77 77 81 77 77 74 65 65 65 61 55 52 52 48 42 52 61 68 42 32 32 42 71 74 74 68 58 55 52
39 39 48 65 71 71 74 87 90 94 87 84 81 77 77 77 71 74 84 77 71 68 65 61 61 55 52 45 52 52 61 65 23 26 32 42 74 74 74 61 61 58 55
39 55 42 45 68 52 52 61 84 87 84 81 74 77 77 65 58 77 61 71 52 65 61 55 65 58 52 55 55 58 61 42 13 19 29 58 71 71 68 61 61 61 58
29 48 58 55 55 48 45 77 81 71 77 74 81 81 84 81 81 42 58 77 71 71 68 74 71 68 61 35 45 61 48 32 13 29 42 68 74 65 68 65 58 58 55
39 39 48 55 87 61 68 74 87 77 90 84 77 74 77 68 71 68 68 71 77 68 65 71 65 61 58 58 55 55 48 32 39 35 48 81 77 71 68 65 65 61 58
42 48 45 68 84 97 97 84 90 87 87 84 84 81 77 84 84 81 77 84 84 84 77 81 81 65 55 48 52 45 48 48 45 39 65 84 77 71 65 61 65 65 58
48 58 74 81 87 94 94 94 87 90 87 87 87 87 87 84 87 84 87 87 87 84 77 81 84 77 68 61 55 55 61 48 55 55 58 74 74 74 65 58 48 52 52
55 65 77 81 87 84 90 94 90 90 94 87 90 87 81 87 84 87 87 87 84 87 84 84 84 77 77 68 65 61 61 65 58 61 52 61 71 71 65 55 52 45 48
58 71 77 81 84 84 87 90 94 90 87 90 87 90 84 87 87 81 84 84 90 90 84 84 81 77 74 68 71 71 68 68 68 61 65 55 52 65 68 65 58 58 55
58 77 74 65 77 87 87 94 94 90 87 87 87 94 87 84 87 81 87 84 84 84 87 87 84 77 84 74 71 71 68 74 65 68 61 58 48 45 55 68 65 65 58
77 81 84 87 81 84 87 94 90 94 90 90 87 87 87 81 84 87 84 90 84 84 87 68 77 81 81 74 71 74 71 68 71 58 65 65 65 58 48 55 68 65 58
87 84 81 90 90 90 90 94 94 94 90 87 87 84 77 81 87 84 87 84 87 87 90 87 77 81 77 81 48 55 71 65 71 68 68 65 68 61 48 42 45 52 61
81 87 94 90 90 94 94 90 94 90 90 87 90 81 77 81 84 97 81 87 94 84 81 77 74 74 74 74 77 61 61 74 52 71 71 71 58 58 58 58 42 42 32
87 90 94 90 97 97 97 97 97 94 94 90 90 87 74 77 77 77 97 94 87 84 77 77 84 81 71 74 68 61 48 42 55 29 68 55 61 65 61 55 61 58 52
87 87 84 90 97 97 94 97 94 97 94 94 94 94 90 84 81 81 84 94 84 74 74 77 84 84 71 77 71 55 55 39 48 55 55 45 55 55 48 52 52 58 52
81 81 90 94 94 97 97 94 94 94 94 94 90 94 87 84 77 81 84 90 90 84 87 81 74 81 74 71 77 77 65 65 42 32 35 52 52 52 45 42 35 52 55
77 84 84 87 90 90 94 94 94 94 90 84 84 87 84 87 87 81 81 87 87 84 84 81 77 84 81 77 84 71 71 61 45 42 23 35 35 48 55 58 45 45 48
77 84 84 87 90 87 90 87 84 81 84 81 81 77 81 81 81 74 71 74 77 84 77 77 77 77 77 74 71 71 58 58 58 45 26 29 35 45 45 48 45 42 48

GEFSSE_con_cape1000_246.txt.gz
Probability
29 61 94 90 90 87 87 90 90 94 94 94 90 90 90 87 90 87 84 87 90 90 87 84 81 84 84 74 74 74 71 65 65 68 65 65 65 65 68 55 52 52 74
39 68 90 87 87 84 84 90 90 90 90 90 90 90 90 94 94 90 90 90 87 87 81 81 81 74 77 68 65 71 68 68 71 68 65 71 65 71 58 58 52 48 61
55 71 81 90 87 90 84 84 87 87 87 87 87 87 87 87 94 94 90 87 87 74 74 74 71 65 68 68 74 61 74 71 68 71 61 29 55 65 68 68 61 58 65
45 55 71 87 90 87 87 84 87 87 87 84 84 87 87 87 94 97 87 87 81 77 71 65 61 65 65 61 61 65 68 68 71 68 13 16 29 65 74 68 65 61 61
35 61 77 84 90 87 84 90 90 84 84 87 84 84 87 87 94 94 90 87 77 71 65 58 58 58 58 61 68 68 68 68 58 35 6 13 26 65 68 68 68 65 61
48 61 74 90 94 90 90 94 94 90 84 81 84 84 87 87 90 90 87 87 77 77 61 58 58 58 58 55 65 68 68 55 45 6 13 16 29 65 68 68 65 61 58
48 68 77 97 97 97 90 94 90 90 90 87 87 87 90 87 84 87 87 87 81 77 65 58 52 52 58 61 65 61 55 52 16 6 3 10 32 65 65 68 65 61 65
48 71 74 90 97 97 94 90 94 90 90 94 87 87 90 90 84 84 87 84 77 81 68 68 52 52 58 61 65 61 61 55 29 6 6 16 48 65 65 71 68 65 65
48 61 71 74 87 94 94 94 94 90 94 90 87 84 87 84 87 84 84 81 74 77 71 65 48 52 52 58 65 68 65 61 10 10 10 26 61 71 65 71 68 61 58
39 55 52 52 65 68 81 90 90 90 90 87 81 84 84 81 81 77 81 81 81 84 74 65 55 55 61 68 68 68 61 52 10 6 13 29 74 68 71 71 65 55 52
32 35 42 45 45 48 55 81 87 87 87 84 77 81 71 42 52 71 68 77 74 81 68 61 61 74 71 68 68 65 48 10 6 10 13 42 71 74 68 68 65 61 58
19 19 19 32 29 32 39 48 52 58 48 39 35 45 32 16 19 42 61 84 74 74 65 68 77 71 48 32 32 48 26 10 10 16 19 61 74 74 68 71 61 61 61
10 13 16 16 13 13 10 16 19 19 13 13 19 19 6 10 10 19 19 42 39 52 32 35 42 35 23 13 10 6 6 6 10 16 23 77 84 74 71 68 65 61 61
6 13 19 19 16 10 16 26 16 16 16 10 13 13 10 10 6 10 10 13 13 10 10 10 10 10 13 13 10 10 10 13 10 16 19 81 81 77 68 65 61 61 61
10 16 23 23 19 26 29 29 32 23 26 19 16 16 16 13 13 10 13 16 10 13 13 16 13 10 16 16 10 10 10 10 13 13 16 71 84 81 68 58 55 55 55
19 23 29 26 23 23 26 19 23 29 23 16 19 23 19 10 13 13 16 10 13 16 13 10 10 13 10 13 10 10 10 6 10 13 10 45 74 68 61 55 52 58 55
23 32 39 42 26 26 29 32 29 19 26 26 23 19 19 10 13 13 10 10 16 13 10 10 6 10 6 6 6 10 13 3 13 10 13 13 26 71 68 55 58 52 52
32 32 35 58 45 39 35 35 35 32 23 32 26 29 23 16 23 23 13 16 13 10 6 10 10 13 3 3 6 6 3 3 3 10 3 3 6 13 45 58 58 61 52
35 35 39 48 35 42 39 35 39 32 26 32 32 35 35 32 35 19 16 16 13 10 10 10 10 10 3 6 6 3 3 0 0 0 3 0 0 6 6 29 65 68 52
29 32 42 52 45 42 52 39 39 42 35 35 39 39 42 32 35 32 29 19 10 10 10 6 10 6 6 6 10 3 0 0 0 0 3 0 0 3 6 10 16 39 65
32 35 32 42 52 48 48 55 45 39 29 35 35 45 42 35 32 29 29 23 10 10 10 10 6 6 3 6 3 0 0 0 0 0 0 0 0 0 3 3 0 0 0
39 35 48 48 55 48 52 52 45 39 35 29 35 39 39 39 32 35 19 13 13 6 3 6 3 3 3 3 0 0 0 0 0 0 0 0 0 0 0 0 0 0 0
42 42 45 52 58 58 42 45 42 39 35 35 35 35 35 35 32 32 23 19 16 16 13 6 3 3 3 0 0 0 0 0 0 0 0 0 0 0 0 0 0 0 0
42 48 45 55 61 52 45 52 45 39 32 39 35 35 35 29 35 29 23 23 23 23 19 10 13 10 6 0 0 0 0 0 0 0 0 0 0 0 0 0 0 0 0
39 52 61 58 52 52 58 45 45 39 35 32 39 35 35 32 29 35 29 23 23 26 26 19 16 13 0 0 3 0 0 0 0 0 0 0 0 0 0 0 0 0 0
52 58 61 58 55 55 52 52 55 42 39 39 42 39 29 32 32 32 35 29 23 29 29 23 16 13 13 10 13 6 6 0 0 0 0 0 0 0 0 0 0 0 0

GEFSSE_con_cape1000_252.txt.gz
Probability
16 45 77 81 87 84 87 90 90 84 90 90 90 90 87 87 84 87 84 87 87 84 81 77 74 65 68 71 74 65 61 55 55 65 65 71 74 77 65 68 48 48 55
19 55 81 84 90 90 87 87 90 87 90 90 94 94 94 84 87 84 81 77 84 84 81 81 71 65 65 65 68 68 65 58 58 55 55 55 61 52 52 45 39 48 52
29 58 77 84 84 90 87 87 90 87 87 90 90 94 90 90 94 87 77 77 77 77 74 65 65 65 68 65 61 65 68 61 58 61 58 39 48 48 52 55 42 55 58
32 48 68 87 87 84 84 87 87 87 87 87 87 87 87 87 87 84 84 84 77 65 61 65 61 61 68 68 71 65 65 65 58 55 19 35 32 45 55 58 55 52 48
35 52 77 94 87 84 84 87 87 84 84 84 84 87 87 84 81 84 90 87 81 68 58 55 55 55 58 55 68 61 61 61 61 19 13 23 42 48 55 61 45 42 58
39 58 77 90 90 87 81 87 84 81 84 84 84 87 90 87 87 90 90 90 74 71 61 65 65 61 55 55 58 58 58 61 26 19 16 23 32 65 55 55 48 48 61
39 58 71 94 90 90 90 87 84 84 84 87 87 87 90 94 94 90 94 87 68 61 61 61 58 58 58 61 61 58 55 45 19 6 16 16 35 61 58 58 61 55 52
52 55 71 90 90 90 90 90 87 84 84 87 87 87 90 94 90 87 87 84 71 65 65 55 55 61 61 61 55 52 52 45 16 10 10 26 42 65 61 65 65 61 55
48 48 58 71 84 87 90 90 84 77 87 87 81 84 87 90 84 90 94 84 77 74 65 65 55 55 58 55 61 58 52 58 16 10 13 23 42 55 58 61 48 55 65
35 42 42 52 52 61 74 90 84 84 84 87 87 87 81 94 84 87 84 90 71 74 68 61 58 58 65 61 61 65 52 48 13 6 23 29 45 55 55 61 48 48 58
26 32 35 26 29 39 55 71 74 74 77 81 74 74 74 23 35 52 71 87 74 71 65 65 68 68 61 55 68 61 45 23 13 10 19 42 55 58 61 55 65 58 52
16 23 23 19 13 16 45 48 35 35 26 26 19 23 10 10 13 48 68 74 68 71 68 65 65 58 52 42 48 45 32 23 10 13 19 52 61 61 65 58 65 55 52
10 16 13 16 6 10 3 16 10 13 6 6 10 6 6 6 6 6 13 23 19 32 29 35 35 29 23 13 16 16 13 13 16 19 23 52 68 61 65 58 61 61 45
3 13 16 13 10 6 3 3 3 10 10 6 6 3 6 6 6 6 10 6 3 6 6 6 10 10 16 13 10 10 10 13 19 26 26 52 71 58 61 68 58 58 58
3 6 6 10 10 6 3 3 13 6 13 6 6 6 3 3 3 3 3 3 3 3 3 10 6 10 13 16 13 13 10 13 19 16 23 42 61 71 65 61 55 58 58
10 6 10 6 6 0 3 3 6 3 6 6 6 6 6 6 3 3 3 3 3 3 3 3 3 6 6 6 6 13 16 10 16 13 19 26 48 61 68 58 48 58 55
10 16 16 10 10 3 3 3 6 6 3 3 3 3 6 6 6 6 3 3 3 3 3 3 3 3 3 3 6 6 6 10 13 13 16 23 26 45 61 61 45 52 45
6 10 10 26 19 10 13 10 13 13 10 13 3 6 10 10 6 3 3 3 3 3 3 3 3 3 3 3 3 6 6 6 10 10 13 13 13 13 42 48 55 48 45
6 3 10 19 13 13 16 16 10 10 16 10 10 6 10 10 6 0 0 3 3 6 6 6 6 3 3 3 6 10 10 6 6 6 3 3 6 6 10 16 45 45 42
6 10 13 16 13 13 10 6 6 10 13 13 10 6 6 16 13 10 6 6 6 6 3 3 3 3 3 3 3 6 3 0 0 3 3 3 3 3 6 6 16 39 45
16 13 10 16 16 13 13 16 16 13 16 16 23 19 16 19 16 10 6 6 3 3 3 0 0 0 0 0 0 0 0 0 0 0 0 0 3 3 6 3 6 6 10
19 16 13 13 13 13 13 10 13 13 13 13 16 16 19 19 13 13 6 6 3 3 0 0 0 0 0 0 0 0 0 0 0 0 0 0 0 3 3 3 0 0 0
19 19 19 10 10 6 13 10 16 13 16 13 19 16 13 16 16 16 10 6 3 0 0 0 0 0 0 0 0 0 0 0 0 0 0 0 0 0 0 0 0 0 0
26 19 13 6 10 6 10 10 13 23 23 19 16 10 13 19 23 19 13 10 6 0 0 3 0 0 0 0 0 0 0 0 0 0 0 0 0 0 0 0 0 0 0
23 23 13 10 6 6 13 10 13 23 19 19 13 10 13 10 13 32 23 13 6 3 3 6 10 3 0 0 0 0 0 0 0 0 0 0 0 0 3 0 0 0 0
26 19 16 6 10 13 19 23 23 23 19 16 19 19 16 13 19 26 32 19 16 13 10 10 6 6 10 6 6 6 6 3 3 0 0 0 0 0 0 0 0 0 0

GEFSSE_con_cape1000_258.txt.gz
Probability
19 29 71 74 77 87 90 90 90 87 81 84 84 84 90 87 84 84 81 71 77 74 74 74 74 71 74 71 68 58 58 61 55 65 61 61 61 71 58 45 45 39 68
16 32 71 71 77 90 94 94 84 84 84 87 84 87 90 84 81 77 77 77 74 77 81 74 77 71 71 68 58 65 68 58 61 58 55 48 55 58 42 35 52 55 65
16 39 65 81 87 90 97 90 90 87 81 84 81 84 87 81 81 74 71 77 74 68 74 77 74 61 61 58 61 61 58 61 65 45 42 19 32 48 48 39 48 55 55
19 35 52 84 87 84 87 90 87 87 81 90 84 84 84 84 84 84 74 71 61 58 58 61 61 58 58 65 58 58 55 55 45 35 19 16 23 45 42 35 39 48 52
19 35 74 87 87 84 81 77 81 84 87 90 87 77 71 81 77 81 65 55 58 58 55 52 55 61 58 55 52 52 55 55 39 16 10 19 39 48 39 32 39 52 55
23 35 58 87 84 84 84 81 81 84 81 87 81 81 81 81 87 81 71 65 61 58 55 45 52 58 65 52 45 42 55 45 35 10 23 19 29 52 42 35 35 45 55
26 39 52 87 94 87 87 87 81 81 87 87 90 84 90 87 81 74 58 71 68 55 61 68 55 61 52 48 39 42 39 39 13 26 23 26 32 55 48 39 45 48 55
35 32 52 87 90 87 87 87 87 87 84 90 90 84 87 87 81 77 71 68 68 61 52 52 55 55 52 39 45 48 48 42 10 3 16 23 45 65 45 42 48 55 58
23 32 45 42 77 84 77 81 81 84 84 81 77 84 90 87 84 77 74 71 65 65 58 61 55 48 45 45 55 45 45 39 13 13 6 19 39 42 45 45 48 55 55
29 42 42 45 45 48 58 77 74 74 77 77 74 81 74 74 61 65 71 71 68 61 55 48 52 55 55 52 48 45 48 39 13 10 19 29 48 45 39 55 48 52 58
19 32 39 42 35 35 35 45 61 74 74 71 71 74 84 65 52 65 55 65 65 61 65 61 65 65 55 48 45 42 39 32 23 26 32 42 55 52 52 52 52 52 52
13 19 32 26 39 32 35 52 55 45 61 71 77 71 71 71 71 42 61 58 61 65 65 61 61 52 45 42 39 45 45 29 23 29 42 52 55 48 45 58 52 48 52
13 13 39 42 52 48 52 42 48 68 68 55 68 71 77 61 52 58 55 77 77 65 55 61 45 35 35 35 35 35 26 26 32 19 32 55 55 48 48 61 55 55 45
23 26 35 55 65 58 48 52 55 52 65 61 71 71 71 77 71 65 77 61 58 65 68 52 48 35 32 29 26 35 32 39 29 26 48 48 55 48 61 68 65 52 48
29 32 48 52 61 65 71 58 42 58 52 58 77 81 74 71 74 58 71 71 55 52 48 58 55 48 42 26 26 26 26 32 16 23 35 35 58 52 55 55 52 42 42
35 39 42 45 58 74 74 74 65 58 77 52 71 74 74 68 84 87 81 81 65 58 55 52 52 52 48 39 29 23 23 26 19 23 23 32 42 48 48 48 42 42 42
42 42 52 58 68 71 68 65 74 68 61 61 71 74 77 71 77 77 77 71 68 71 71 65 55 48 55 42 39 29 35 23 16 26 26 45 42 39 45 55 48 45 48
48 58 58 45 55 71 71 71 61 58 58 58 65 68 71 68 71 81 68 65 68 65 68 68 65 52 52 52 45 39 39 52 45 39 35 42 39 32 39 55 52 52 45
55 65 68 58 61 68 71 68 58 55 58 48 58 58 71 58 61 74 68 68 74 68 65 45 48 58 55 61 48 48 42 42 45 32 42 35 42 39 45 52 55 55 48
55 68 68 61 71 65 61 61 58 58 61 55 61 68 55 55 58 61 65 71 61 61 65 48 58 61 61 65 29 39 48 42 39 35 29 29 45 35 39 35 52 48 45
52 68 68 65 74 68 68 65 58 58 58 55 58 61 58 55 52 61 52 65 61 58 61 42 39 48 65 65 58 52 45 35 39 32 32 35 29 35 39 42 52 48 55
58 65 65 68 71 74 68 68 65 61 55 55 58 58 58 58 55 42 65 52 58 68 65 61 65 52 42 45 48 42 39 39 42 13 29 35 32 35 39 39 48 55 58
55 65 61 65 65 68 68 61 65 61 58 52 61 61 61 55 55 58 65 52 58 45 52 65 55 58 45 42 42 42 32 26 29 32 29 29 39 42 42 32 35 55 48
48 61 68 65 71 68 68 71 61 68 61 55 55 65 61 55 48 52 58 55 55 52 61 52 48 55 45 42 52 52 48 26 29 32 35 29 45 39 35 19 19 39 48
52 61 61 68 71 74 74 74 74 71 58 58 58 58 61 58 58 55 52 55 52 52 55 52 58 55 52 52 42 42 39 45 32 35 29 26 35 29 32 35 32 29 32
55 58 65 71 84 77 81 77 77 71 68 68 68 65 58 55 55 55 55 55 52 52 61 55 58 52 61 58 52 52 42 39 42 39 39 35 35 29 23 32 29 35 39

GEFSSE_con_cape1000_264.txt.gz
Probability
29 35 74 74 77 77 81 84 84 84 84 77 81 77 71 74 77 81 74 77 71 71 71 68 61 61 61 58 52 52 65 65 65 58 58 61 65 61 58 52 55 39 74
35 39 81 84 81 81 84 84 84 81 81 81 84 84 74 74 71 68 74 77 77 77 65 65 61 61 55 55 58 58 61 61 65 58 55 55 61 58 65 52 52 55 68
35 42 74 84 81 74 81 77 81 81 81 81 84 87 87 74 71 71 81 77 74 65 58 58 58 58 61 52 52 65 58 55 52 55 55 26 39 52 52 58 61 58 52
29 48 61 84 77 74 74 77 74 77 77 87 90 84 71 77 74 65 68 71 71 65 61 61 52 58 55 52 55 61 55 52 45 42 35 26 13 42 55 58 52 48 45
35 48 71 84 81 74 74 81 77 74 81 84 84 77 71 74 74 68 68 68 55 58 61 58 55 52 52 48 48 52 45 52 52 35 23 35 29 45 45 48 58 48 55
29 39 68 84 84 84 81 87 84 84 84 84 81 84 81 77 74 71 68 55 55 45 42 52 55 45 52 42 39 39 39 52 39 23 29 35 26 55 42 39 39 52 55
23 23 52 97 94 87 84 84 84 87 84 84 87 90 81 77 77 65 55 55 52 45 45 48 55 45 42 42 39 48 52 45 39 26 39 35 42 65 52 32 39 48 45
29 35 68 90 94 87 87 87 90 90 81 84 81 84 87 77 68 68 58 55 45 45 48 48 48 42 42 39 39 52 65 52 26 19 39 39 45 61 45 39 42 45 52
32 39 45 65 77 87 90 84 84 84 81 81 74 74 74 74 77 74 65 52 48 39 39 35 39 32 26 42 55 61 58 61 35 16 23 29 52 61 42 42 48 45 55
39 39 39 45 58 45 55 77 81 77 74 77 74 68 74 74 68 74 68 65 48 32 29 35 35 45 45 45 48 52 55 48 23 6 16 29 65 52 45 52 42 45 48
29 48 48 48 48 32 32 52 77 74 77 74 77 68 71 71 48 71 65 65 58 52 55 55 52 48 52 52 52 61 48 29 23 26 26 39 61 55 58 55 48 42 42
35 42 58 58 55 32 29 74 77 61 77 87 84 74 87 90 84 52 61 74 52 55 58 58 61 48 42 32 42 52 32 29 16 23 32 68 68 58 55 58 55 48 48
39 42 61 58 71 61 68 65 77 81 84 81 77 77 87 77 74 65 68 61 71 52 48 48 55 42 39 39 45 45 39 19 19 19 19 68 65 61 61 55 52 55 52
45 48 55 65 77 90 81 74 74 68 77 81 81 71 81 77 74 87 77 87 84 81 77 55 52 48 48 42 39 42 29 26 23 32 32 58 65 61 58 58 55 52 42
48 58 68 77 90 90 90 84 71 74 74 84 81 77 68 77 77 84 90 87 84 84 74 71 65 58 58 52 48 35 26 29 29 32 39 45 52 55 52 58 58 52 48
55 61 68 71 87 90 90 87 81 77 81 81 74 68 71 74 87 84 90 90 84 87 81 68 65 74 58 61 58 55 39 35 26 23 16 26 45 55 45 48 48 55 48
52 65 65 68 84 87 87 77 81 81 74 84 77 81 74 81 84 84 87 87 84 81 71 74 65 68 61 65 58 65 52 52 42 35 32 29 26 48 48 48 48 48 45
58 71 68 48 71 84 81 77 71 74 77 84 77 77 77 81 81 84 81 81 87 84 77 74 68 68 68 71 68 65 61 65 55 52 42 42 35 23 39 58 58 65 45
61 74 74 77 71 68 74 77 74 81 81 84 77 74 77 74 71 74 77 81 84 84 81 65 65 68 68 68 65 58 61 58 58 45 35 48 58 45 29 35 58 58 58
65 77 77 77 81 74 74 84 84 84 81 77 81 77 71 71 71 77 77 81 77 71 74 71 68 71 71 61 29 42 52 55 58 52 48 39 55 42 35 26 32 42 55
61 77 77 77 74 77 71 77 77 81 74 74 74 74 71 71 71 74 71 77 71 68 71 61 65 61 65 65 52 45 48 48 52 55 55 45 32 29 45 48 32 32 29
65 71 74 77 74 71 77 81 81 77 71 74 71 71 71 61 65 55 68 71 68 71 65 68 74 65 45 55 55 45 29 32 29 16 42 45 39 42 45 35 48 42 35
58 65 65 71 77 77 77 77 74 81 77 77 77 77 68 61 71 65 68 61 65 65 65 68 68 58 48 52 52 48 39 29 32 39 32 39 32 35 39 35 35 39 32
61 61 74 74 74 77 77 77 81 77 74 74 77 71 68 68 65 61 58 58 58 58 65 61 61 61 61 55 52 48 45 35 29 26 32 39 32 29 32 23 29 35 35
55 65 71 77 84 84 81 81 84 81 81 71 71 71 68 65 61 61 55 55 61 55 58 65 65 65 65 58 45 48 45 48 39 29 16 26 29 35 39 45 35 35 35
58 58 68 77 84 84 84 84 84 77 77 74 71 71 68 68 61 65 55 55 55 55 61 61 61 61 65 61 55 52 48 39 39 35 26 19 19 29 29 35 32 35 29

GEFSSE_con_cape1000_270.txt.gz
Probability
19 61 87 87 90 90 90 84 84 87 81 81 84 77 87 87 81 77 71 71 74 68 65 68 61 61 65 61 68 74 68 65 71 68 71 77 81 77 87 81 71 58 81
39 71 87 90 84 84 87 87 84 87 90 84 87 77 84 87 87 84 81 77 71 71 68 55 58 55 68 61 58 52 52 52 68 71 65 61 68 71 71 71 61 58 74
42 68 77 90 87 87 90 90 84 90 90 81 84 84 77 77 81 77 81 77 74 71 68 55 58 61 61 58 58 52 52 68 68 68 52 26 48 61 65 68 68 74 74
39 48 68 84 84 87 87 87 87 84 90 84 87 77 77 77 81 84 77 81 74 68 68 68 58 48 58 58 52 52 52 48 55 55 16 16 19 58 65 65 65 71 74
19 39 81 87 84 87 87 84 84 77 84 87 81 81 81 81 81 77 77 77 77 74 71 55 52 52 55 48 52 55 52 45 48 16 10 6 13 65 65 58 58 65 71
23 52 77 87 87 90 87 84 84 84 87 84 84 84 77 77 81 77 74 74 74 71 71 55 45 45 52 55 58 52 48 42 19 10 13 10 10 52 52 61 55 52 61
26 52 74 87 90 87 87 87 87 84 90 90 87 87 84 87 84 84 81 74 71 77 65 58 52 52 55 55 55 52 39 35 16 6 6 10 13 61 65 52 55 52 52
23 45 71 90 87 87 87 81 84 84 87 90 90 90 90 84 87 87 87 74 71 65 61 55 55 55 48 48 55 55 48 35 13 6 3 3 23 61 52 48 55 52 52
23 42 52 68 71 81 84 84 84 87 84 84 81 81 84 87 87 84 84 81 71 55 48 42 48 48 61 52 52 55 42 39 23 10 6 3 35 45 39 45 52 48 55
13 29 39 48 55 65 68 84 87 90 94 90 87 84 81 81 87 77 84 71 65 52 48 48 48 48 55 48 55 52 48 35 16 6 0 3 48 52 45 45 52 42 52
13 23 26 35 32 39 48 71 77 81 90 84 84 94 65 39 32 42 48 68 52 48 48 58 58 58 48 55 61 52 42 13 13 6 0 19 52 55 61 65 55 52 52
6 19 19 19 16 13 32 42 42 48 48 39 39 42 29 23 26 32 68 68 58 65 58 55 52 52 39 23 26 32 19 10 10 10 10 39 58 61 65 65 68 61 52
6 10 10 6 10 16 16 16 26 26 19 10 16 13 16 10 13 29 26 26 42 35 32 39 35 32 29 16 10 10 10 6 6 6 10 48 55 55 55 55 61 61 65
13 13 16 10 16 23 26 23 23 19 16 16 10 13 13 6 6 13 19 13 13 13 13 10 13 6 10 3 3 3 6 3 6 6 3 55 61 58 55 52 55 61 58
10 16 16 23 26 23 19 23 23 19 23 16 19 10 10 13 13 13 10 6 10 6 6 6 6 3 3 3 3 3 3 3 6 3 3 48 58 55 48 52 55 55 52
13 16 10 23 26 23 26 26 29 26 23 19 13 13 19 16 13 16 19 10 13 6 3 3 6 3 3 3 3 3 6 3 6 3 3 23 52 48 48 45 48 48 52
13 13 16 23 23 26 29 32 32 26 29 23 19 23 26 23 19 26 16 16 16 10 6 6 6 3 3 3 3 3 3 3 3 3 6 6 16 39 45 52 55 48 48
13 10 19 35 29 26 32 35 32 29 29 26 19 26 26 23 19 19 19 16 13 10 10 6 3 3 3 3 3 3 3 3 3 3 3 3 0 3 26 48 48 52 55
10 13 16 29 29 32 35 35 32 32 29 29 26 23 26 29 32 26 16 10 16 6 6 6 3 3 3 3 3 3 3 3 3 3 3 0 0 3 3 13 55 58 45
10 16 16 23 29 32 32 29 29 26 29 29 26 23 26 32 29 29 23 13 13 6 6 6 6 3 3 3 3 3 3 0 0 0 0 0 0 0 0 0 10 23 42
13 16 19 26 29 29 29 32 32 26 23 29 29 26 26 23 26 26 26 13 10 10 10 10 6 3 3 3 3 0 0 0 0 0 0 0 0 0 0 0 0 0 13
23 23 26 26 35 35 26 29 29 29 32 29 26 29 26 23 23 29 29 13 16 10 6 6 3 3 3 3 0 0 0 0 0 0 0 0 0 0 0 0 0 0 0
26 26 32 26 35 32 35 42 42 42 42 39 32 32 29 26 32 29 26 26 16 13 10 6 3 6 3 3 3 0 0 0 0 0 0 0 0 0 0 0 0 0 0
26 29 29 32 39 39 42 42 42 45 45 42 32 32 29 26 29 32 23 29 23 16 10 3 10 10 3 3 3 3 0 0 0 0 0 0 0 0 0 0 0 0 0
29 32 35 35 45 42 48 45 45 42 42 45 42 35 32 35 32 32 39 32 29 26 19 26 19 13 3 3 0 0 0 0 0 0 0 0 0 0 0 0 0 0 3
32 32 35 39 48 48 48 45 42 42 45 42 42 42 35 32 35 35 39 32 32 26 29 29 19 16 10 3 0 0 0 0 0 0 0 0 0 0 0 0 0 0 6

GEFSSE_con_cape1000_276.txt.gz
Probability
6 29 71 77 87 81 84 87 84 77 77 74 77 84 71 71 71 61 61 65 68 65 65 55 58 58 55 61 65 68 68 71 71 71 74 71 77 77 71 71 68 48 68
13 48 74 81 87 84 84 81 81 81 77 74 71 77 74 77 77 77 61 61 61 55 61 58 65 61 65 65 68 71 68 71 68 61 71 68 71 71 68 68 55 48 65
26 45 68 84 90 87 87 81 74 81 74 77 74 77 81 77 77 71 71 61 65 61 65 61 61 61 61 65 58 61 65 68 58 61 48 39 55 61 58 58 68 61 71
39 42 71 81 81 87 87 81 81 77 77 74 74 77 81 77 77 77 77 71 65 61 58 58 52 52 55 55 48 55 61 55 55 39 19 26 39 52 55 61 65 71 71
35 45 61 84 81 84 84 87 84 81 84 74 77 81 77 74 74 74 77 71 61 55 55 45 35 35 42 42 48 58 58 55 39 26 13 16 32 52 52 61 61 71 68
26 48 61 84 81 87 87 87 84 81 81 77 77 81 81 81 77 74 74 71 65 58 48 42 35 32 45 52 39 39 42 35 16 6 13 13 32 45 55 52 68 71 71
26 45 58 77 81 84 87 84 87 81 81 77 77 81 81 77 77 77 71 71 65 61 52 52 45 48 48 48 52 45 35 26 10 10 16 16 19 42 45 42 55 55 65
23 42 55 71 74 77 84 81 84 84 81 81 77 77 77 81 81 81 71 65 61 61 58 52 45 42 45 52 55 48 42 26 19 6 10 3 23 48 39 45 55 55 61
23 29 45 45 55 74 77 77 84 81 77 81 84 77 77 77 77 74 65 58 58 61 58 45 45 42 48 55 55 55 35 26 16 13 6 6 32 39 42 45 52 55 61
13 23 23 29 32 39 52 77 77 90 87 84 81 77 81 77 74 81 65 68 61 52 42 42 48 48 48 48 58 45 39 35 16 13 10 10 35 39 48 45 61 58 48
13 13 13 19 23 29 39 55 52 61 68 61 55 74 55 29 26 45 52 55 52 48 39 48 52 48 39 42 52 48 32 16 16 13 13 13 35 39 35 52 61 52 48
3 6 13 10 10 19 29 23 29 39 35 32 29 26 19 13 19 35 55 58 52 42 45 48 52 42 32 23 26 26 13 13 6 6 10 35 39 42 48 52 61 61 55
3 6 6 10 13 13 10 13 13 19 16 13 16 13 6 6 6 13 10 13 19 29 23 29 32 23 19 13 10 10 6 6 6 10 10 23 39 48 48 55 71 58 55
3 6 6 6 3 3 6 3 6 13 10 10 13 10 6 6 3 3 3 3 6 10 6 3 6 6 3 3 3 3 3 6 6 10 10 16 35 52 55 58 58 61 52
3 3 3 10 6 6 3 3 10 3 10 10 10 6 3 3 3 3 3 3 3 3 3 3 3 3 3 3 3 3 3 6 6 6 6 16 45 55 52 52 58 52 52
3 3 3 6 3 3 3 3 6 10 13 10 6 6 6 6 3 3 3 3 3 3 3 3 3 3 3 3 3 3 6 3 3 3 3 16 35 48 58 55 55 55 52
3 3 3 3 3 6 10 10 6 6 6 6 6 6 6 6 6 3 3 3 3 3 3 3 3 3 3 3 3 3 3 3 3 3 3 0 6 26 52 58 58 52 55
3 3 3 13 6 6 6 10 6 3 13 13 10 13 13 16 13 10 10 6 6 6 6 10 6 6 3 3 3 3 3 3 3 3 0 0 3 3 23 45 55 52 42
3 3 3 6 10 10 10 6 6 16 16 16 6 6 6 16 13 10 6 6 13 13 6 6 6 3 3 3 3 3 3 3 3 3 3 0 0 0 6 13 39 48 42
3 3 3 6 6 10 6 6 6 10 10 6 10 16 16 19 19 16 16 10 6 10 10 6 6 3 3 3 3 3 3 3 3 3 3 0 0 0 3 6 10 23 35
3 3 3 6 6 3 13 13 10 13 13 16 16 19 16 13 23 13 13 10 10 10 6 6 3 6 3 3 3 3 0 0 0 0 0 0 0 0 0 3 3 6 10
3 6 6 6 6 6 6 6 13 13 13 13 16 16 16 16 13 19 10 13 6 6 6 6 6 3 3 3 3 0 0 0 0 0 0 0 0 0 0 0 0 3 3
3 6 6 6 3 3 6 13 16 16 16 19 16 16 16 16 19 19 16 10 6 6 6 6 6 3 6 3 0 0 0 0 0 0 0 0 3 3 0 3 0 0 3
3 3 3 6 10 6 13 16 16 16 23 16 13 13 16 16 16 19 19 13 6 6 6 6 6 3 3 3 3 3 0 0 0 0 0 0 0 3 3 0 3 0 0
6 3 6 10 10 13 16 19 16 23 16 16 13 16 13 10 13 19 19 13 13 13 13 10 10 3 3 0 0 0 0 0 0 0 0 0 3 3 0 0 3 3 3
3 6 6 13 6 10 16 19 16 19 10 19 19 16 16 13 6 16 19 16 16 16 16 16 6 10 3 0 0 0 0 0 0 0 0 0 3 3 0 0 0 3 3

GEFSSE_con_cape1000_282.txt.gz
Probability
16 35 71 77 74 74 77 77 81 77 71 84 77 81 74 61 52 52 55 65 65 61 58 55 52 52 58 65 61 68 68 65 68 68 71 71 71 65 58 61 68 42 68
19 35 68 81 84 87 77 74 71 74 68 74 74 71 74 68 58 55 65 71 61 58 58 58 55 52 55 58 61 71 68 71 68 68 68 71 65 65 61 61 65 58 74
19 39 52 77 84 87 81 74 74 71 74 65 61 65 58 61 61 58 55 68 65 55 58 55 52 52 58 61 58 65 68 71 74 68 65 35 26 55 65 52 58 68 68
19 42 48 81 90 87 81 77 81 71 68 65 65 68 65 61 55 48 55 61 55 52 55 55 52 52 55 58 61 65 65 61 55 42 29 16 26 45 55 55 61 68 65
35 52 68 81 81 77 77 81 77 77 65 71 71 68 68 61 65 61 55 52 55 55 52 45 45 55 52 55 61 55 61 42 32 19 10 19 35 48 48 58 61 65 71
26 45 68 84 84 81 77 77 74 77 71 71 77 74 71 68 68 65 55 48 58 55 48 39 48 48 45 42 45 52 55 35 13 13 26 23 32 55 52 45 52 65 71
19 32 55 81 81 81 77 77 77 74 74 77 71 74 74 74 71 65 65 58 52 48 45 35 35 39 39 39 39 42 32 16 16 19 26 29 39 65 52 45 45 61 58
26 29 61 74 84 84 81 74 68 65 68 65 61 71 71 77 84 71 65 55 52 48 39 35 32 32 32 35 39 39 35 16 16 6 13 29 35 39 42 39 45 45 52
23 29 48 55 68 77 90 77 68 71 74 68 65 74 74 77 71 58 52 48 48 39 45 39 35 32 35 42 42 45 29 23 3 16 6 29 26 29 42 42 42 39 48
29 29 42 48 42 35 68 71 71 71 71 65 77 65 71 74 68 58 48 52 48 42 45 42 45 35 39 32 32 26 26 32 10 10 19 26 29 35 39 35 48 55 55
23 32 39 39 39 35 35 48 61 77 71 71 65 61 61 58 52 48 32 48 39 35 35 39 39 45 35 39 35 32 26 19 13 19 16 26 29 35 35 29 45 55 55
16 35 48 32 39 35 26 48 58 42 68 61 61 58 65 58 55 26 42 45 35 45 39 35 32 32 32 23 23 19 19 16 13 13 13 35 35 35 32 45 48 52 58
19 29 32 39 48 42 45 48 48 55 68 52 61 58 58 45 39 39 45 48 48 35 39 35 35 29 16 19 19 16 13 16 23 13 19 29 35 42 42 45 55 52 55
16 26 23 39 55 55 52 48 55 52 48 48 61 55 58 52 42 42 39 42 48 55 58 32 35 26 19 19 19 16 16 19 13 13 32 29 35 39 39 45 61 48 48
16 32 35 42 58 71 71 61 48 55 48 55 58 58 61 55 52 48 52 58 39 48 45 52 39 35 35 19 19 16 19 16 16 16 23 29 39 45 45 55 55 58 58
26 32 32 48 52 71 74 71 65 55 68 48 52 55 58 58 61 58 58 55 39 42 42 52 39 45 42 35 19 19 16 23 26 23 26 26 39 42 42 48 52 45 45
26 32 32 39 48 61 58 58 55 52 55 55 61 65 68 61 68 58 52 55 45 35 58 58 48 42 45 29 29 26 26 23 16 29 26 32 32 35 39 42 48 52 45
29 52 42 26 35 48 55 68 52 55 58 58 61 61 71 71 71 58 52 55 52 39 39 68 52 45 45 45 45 29 32 48 32 32 26 39 42 32 42 42 45 48 45
39 48 58 55 42 52 55 58 61 65 68 61 68 68 71 68 68 61 61 58 58 55 45 39 39 48 42 42 32 32 29 29 32 13 19 23 29 35 45 52 48 42 39
39 58 68 74 74 65 65 65 61 58 58 55 61 74 74 65 61 55 61 61 55 55 61 61 61 55 42 42 10 13 26 23 23 29 13 13 32 19 19 26 35 23 32
32 61 74 68 77 74 65 65 61 55 55 52 55 58 68 61 52 55 58 65 65 55 58 48 48 45 45 35 29 32 23 16 19 23 23 19 13 16 16 26 26 23 26
35 55 74 74 74 68 71 68 68 68 58 55 52 55 55 55 52 42 61 61 58 55 58 52 55 45 35 29 35 32 23 23 26 0 13 16 10 13 16 13 32 26 29
42 55 58 74 71 71 68 68 65 68 61 58 58 61 61 58 52 58 58 55 52 52 48 52 55 52 45 39 29 35 26 13 13 6 19 23 23 26 23 23 32 29 26
45 48 68 71 74 71 68 68 65 65 55 55 61 61 61 55 58 52 52 48 52 52 52 52 48 48 52 42 42 45 48 26 19 16 23 23 29 26 23 16 16 32 26
45 42 55 74 68 68 68 65 68 61 61 61 61 65 65 52 55 52 52 55 58 52 52 52 52 52 52 52 45 35 35 32 23 29 26 19 29 23 26 16 29 29 29
42 39 48 68 71 71 68 61 65 65 61 61 61 61 61 52 52 52 52 52 55 52 52 52 45 48 45 45 39 42 39 39 35 32 23 23 19 16 19 29 32 35 35

GEFSSE_con_cape1000_288.txt.gz
Probability
23 42 84 74 71 68 65 71 71 74 71 71 71 61 55 55 55 52 55 61 58 58 55 48 48 48 39 48 58 58 61 55 55 65 65 68 65 61 65 58 58 52 84
26 39 84 81 71 68 65 71 71 77 71 71 68 61 55 52 55 52 52 58 61 58 52 48 48 45 48 55 58 58 58 48 52 61 68 68 65 65 71 68 61 58 77
26 48 61 77 74 74 77 71 71 74 81 71 68 68 48 52 52 55 52 58 58 58 52 48 52 55 55 61 61 58 52 48 55 65 77 29 45 68 74 71 65 68 68
35 45 52 81 71 74 77 77 74 71 65 68 65 68 58 55 45 52 52 58 58 52 52 52 45 52 55 58 52 52 45 48 48 55 32 19 13 52 77 68 61 58 65
23 32 77 81 77 71 74 77 71 68 68 58 58 55 58 45 52 45 48 52 45 48 48 42 42 45 45 45 52 39 35 39 35 39 26 23 19 68 65 55 55 55 55
26 32 68 81 77 71 71 74 74 61 55 61 58 55 58 55 58 52 58 48 42 48 45 39 42 42 45 42 45 42 39 39 32 16 35 26 16 74 68 52 45 45 48
29 32 55 77 77 71 68 71 61 61 61 61 55 52 52 61 58 52 52 42 39 48 45 35 39 32 35 35 35 35 39 32 23 26 32 29 42 65 61 48 52 55 58
29 35 61 81 71 74 71 71 58 55 55 45 42 52 61 52 58 48 45 39 35 35 32 32 35 35 29 35 39 35 32 35 13 6 19 19 48 52 42 42 45 39 45
26 42 39 52 68 71 71 65 61 55 52 52 45 48 61 52 45 48 48 35 32 39 32 29 23 29 32 45 39 45 48 48 26 13 13 23 52 55 42 42 35 35 32
42 39 42 42 52 55 61 65 65 58 55 55 55 55 52 55 55 52 48 48 35 39 42 39 35 39 35 42 45 39 42 39 13 10 23 32 52 52 48 42 42 42 52
32 42 29 19 29 42 35 42 65 61 58 58 55 55 65 55 42 45 45 55 48 42 42 39 42 48 45 39 29 29 23 13 6 19 19 35 48 45 42 48 39 39 45
32 35 39 26 29 26 26 42 61 52 68 68 71 71 68 71 58 35 52 58 39 35 35 45 42 42 35 26 29 26 13 10 13 13 23 45 55 39 32 39 45 52 42
23 32 32 39 55 45 52 61 74 71 77 65 68 71 71 61 52 48 42 48 48 42 39 42 39 32 19 23 19 19 19 19 19 13 19 55 55 39 39 39 45 52 45
26 32 35 42 58 71 71 65 65 65 81 65 77 65 71 71 65 71 68 55 71 55 58 45 45 39 35 29 16 16 23 19 16 16 26 52 55 55 42 45 42 48 42
32 39 48 68 81 84 87 87 65 81 65 77 81 71 71 71 68 68 65 68 61 61 65 61 58 52 42 32 29 32 23 19 26 16 19 42 39 52 42 48 39 39 42
35 42 52 58 77 84 87 87 84 68 84 74 74 81 71 68 71 65 71 74 71 77 71 68 55 55 48 42 45 42 39 23 23 19 19 32 39 42 52 52 45 45 45
42 48 55 65 74 84 84 87 81 81 71 74 77 74 77 65 68 68 65 68 61 68 68 71 65 58 55 35 45 42 42 35 29 29 23 23 29 42 42 45 45 45 39
39 61 58 35 58 77 90 84 84 81 84 81 84 77 77 77 74 74 74 65 65 61 65 68 68 61 55 45 42 42 42 45 32 26 29 19 23 16 23 42 48 42 35
61 71 71 74 65 81 81 84 84 87 87 84 81 74 74 71 71 74 74 74 77 71 71 58 65 58 55 45 35 45 45 48 45 23 29 26 26 26 16 23 45 42 35
65 71 77 81 81 87 87 87 87 87 84 77 81 84 84 68 65 68 71 71 68 68 68 71 68 65 61 52 23 19 39 48 48 35 29 26 35 29 23 16 19 26 39
68 71 81 81 81 84 84 81 84 81 84 77 81 81 77 71 65 68 65 71 74 68 65 61 65 52 55 55 52 29 39 42 39 45 32 32 29 29 23 26 23 16 16
65 71 81 81 81 77 81 87 87 84 77 77 74 84 74 68 65 55 74 71 71 74 58 55 61 58 48 52 45 35 39 35 42 23 39 35 26 29 29 23 23 23 13
52 68 74 81 84 81 84 81 77 84 77 74 74 81 71 68 68 71 71 71 71 65 55 58 58 58 52 55 52 45 35 32 39 32 35 32 29 32 32 29 26 23 26
52 55 81 84 84 81 77 77 77 77 74 68 71 74 74 65 65 55 71 71 68 65 61 52 58 58 52 52 58 55 52 35 29 29 32 35 35 35 32 19 26 26 26
42 55 71 84 81 81 81 77 77 74 71 71 68 74 74 65 61 58 58 61 61 61 58 58 55 52 55 55 52 45 42 39 35 35 29 26 35 35 32 35 35 32 29
32 52 68 81 81 81 81 81 77 74 77 71 74 71 68 61 61 58 52 58 61 61 61 61 58 52 55 52 48 45 42 35 32 35 32 29 32 32 32 35 32 35 35

GEFSSE_con_cape1000_294.txt.gz
Probability
10 39 74 71 81 77 74 71 77 77 71 71 77 81 71 68 68 61 65 68 65 68 61 55 48 48 55 48 58 58 61 61 61 61 58 71 71 71 77 71 61 55 74
10 48 77 77 81 77 77 74 74 71 71 74 71 71 71 58 61 58 61 61 65 68 61 55 48 55 55 52 55 58 58 55 55 55 58 61 68 77 74 71 61 65 68
19 45 74 81 81 84 77 81 81 81 77 71 65 68 68 74 61 65 61 65 65 65 55 55 55 58 42 48 55 55 58 58 52 58 55 32 48 68 71 77 68 74 71
19 35 55 71 77 84 77 84 81 74 74 74 68 61 68 68 71 68 68 65 61 68 58 55 55 52 48 42 48 52 52 55 58 55 16 16 23 61 71 71 71 68 65
19 39 65 74 77 81 81 81 77 74 71 81 81 58 55 58 55 61 71 71 68 61 61 58 55 52 55 45 45 48 58 55 45 23 13 6 10 55 71 68 65 55 52
23 39 55 81 81 81 84 84 74 71 71 77 74 71 68 58 55 58 65 68 68 58 55 55 52 42 42 39 42 45 39 35 23 6 3 10 16 48 52 55 58 52 52
23 32 61 77 77 84 77 77 71 74 74 74 74 68 71 71 65 58 61 68 61 58 48 39 39 35 45 32 32 32 35 29 6 3 0 3 13 52 48 39 39 48 48
19 42 55 81 74 71 74 71 71 71 68 68 61 58 58 55 65 68 65 58 65 55 42 42 42 39 35 35 39 42 42 26 0 0 3 0 29 61 52 48 45 45 45
29 39 45 48 58 71 65 71 71 74 71 65 65 58 58 52 61 61 65 58 42 39 39 39 35 26 26 35 52 45 45 35 10 0 0 0 35 48 45 48 45 45 48
26 26 29 39 42 39 55 65 65 71 68 65 65 61 52 48 55 58 61 55 42 42 35 32 35 29 32 52 52 48 35 32 10 10 0 6 39 45 45 52 48 48 52
16 19 23 29 26 19 23 45 58 52 55 48 52 61 52 29 26 35 42 52 48 45 42 32 35 39 42 42 42 39 39 10 13 6 0 23 48 45 45 45 48 58 52
6 16 19 26 23 23 19 23 23 29 35 26 29 42 32 23 19 32 45 58 52 45 45 45 52 45 32 16 13 29 10 10 6 3 6 29 52 52 52 48 52 55 52
6 13 16 19 19 19 13 10 13 19 13 16 19 16 13 6 13 23 13 39 29 32 23 23 39 29 16 10 6 6 6 3 3 3 6 39 52 52 48 42 39 42 48
10 13 16 6 10 16 10 13 10 6 13 16 6 13 10 13 10 10 6 13 13 13 13 13 16 13 13 10 6 6 3 3 3 3 6 35 48 52 52 42 39 39 42
13 16 16 13 10 6 6 6 10 13 16 10 3 10 13 19 10 6 6 13 13 13 13 10 10 6 10 6 6 6 6 3 6 3 3 32 35 58 48 45 35 32 35
10 19 16 13 13 3 6 10 6 16 10 10 13 10 10 16 16 10 10 10 10 10 10 10 10 3 3 3 6 6 3 3 3 3 3 13 29 39 39 35 45 35 32
13 10 10 13 10 6 6 10 16 16 16 13 10 10 13 13 13 10 10 13 10 6 6 3 6 6 6 3 3 6 3 3 3 3 3 3 6 26 32 32 39 32 29
13 16 13 10 13 10 10 10 10 10 10 6 6 10 16 6 6 3 10 13 13 3 3 6 6 6 6 3 3 3 3 3 3 3 3 3 3 6 13 29 39 39 32
10 13 16 10 16 16 16 16 10 13 10 3 6 16 19 13 10 6 10 13 10 6 10 10 10 3 6 6 3 3 3 6 3 3 3 3 3 3 3 13 45 45 35
13 16 19 13 16 16 19 16 16 13 16 13 16 13 23 26 23 16 13 10 13 10 10 10 6 6 10 6 6 6 6 6 6 6 6 6 3 3 3 3 16 29 35
19 19 23 19 23 19 16 23 23 23 16 19 23 23 29 19 19 23 19 10 16 13 10 6 6 6 6 6 6 6 6 6 6 6 6 6 6 6 6 3 6 3 10
23 16 19 19 29 26 26 19 23 19 26 26 26 16 19 29 26 29 23 19 13 13 6 6 6 6 6 6 3 3 3 3 0 0 6 6 6 3 3 3 3 3 3
23 26 23 26 29 35 35 26 35 29 35 26 19 13 16 32 29 29 26 19 13 10 10 10 6 6 6 3 3 3 3 3 3 0 0 0 0 0 0 0 0 0 0
16 29 29 29 39 42 32 29 32 32 32 26 29 23 26 26 32 35 29 29 23 16 13 13 10 10 10 6 6 3 3 3 3 0 0 0 0 0 0 0 0 0 0
19 29 29 35 39 39 35 32 26 29 29 23 26 29 29 26 26 29 32 29 29 19 19 16 19 16 16 10 10 10 6 3 3 3 3 0 0 0 0 0 0 0 0
26 29 39 39 48 52 45 35 32 32 32 29 32 32 26 26 26 26 26 26 29 26 23 19 26 19 19 16 13 10 10 10 6 3 3 3 3 3 3 3 0 0 0

GEFSSE_con_cape1000_300.txt.gz
Probability
3 10 58 61 68 68 61 68 68 71 77 77 68 68 68 58 65 61 61 61 58 58 55 61 58 61 65 65 65 61 65 58 58 55 58 68 71 71 58 61 61 45 65
6 16 71 68 71 74 71 65 61 71 74 77 77 74 68 71 71 61 61 58 55 58 68 61 58 65 61 58 58 55 61 58 58 55 58 58 68 68 55 48 55 48 55
10 23 52 71 77 68 74 68 61 71 71 77 81 71 74 71 68 65 65 68 65 55 52 52 58 52 52 58 58 71 61 58 61 58 55 39 58 61 52 48 55 61 61
13 19 48 65 74 74 74 74 65 68 61 65 71 77 77 65 61 61 61 68 65 58 52 48 48 48 48 58 68 65 65 61 42 32 13 26 32 45 52 48 58 55 58
13 26 45 81 74 74 71 71 71 65 65 74 71 71 71 71 58 58 71 71 65 65 58 48 39 45 52 58 55 58 52 61 45 16 10 6 29 45 52 55 58 58 52
16 23 48 71 68 71 77 74 61 61 58 61 61 61 58 61 55 52 55 58 55 55 58 42 42 45 48 52 55 58 48 45 23 10 3 3 23 45 48 55 61 52 52
19 19 48 65 71 71 71 71 68 61 61 52 52 55 65 65 58 55 55 58 55 61 48 45 35 39 45 45 42 42 42 26 16 10 6 3 16 45 52 55 42 35 42
16 19 32 65 65 68 65 61 65 65 61 61 55 58 58 58 61 71 61 55 55 55 52 39 39 39 35 35 35 32 23 16 10 6 3 6 19 39 48 42 42 35 39
16 16 32 32 29 48 58 58 61 58 58 55 61 58 65 55 52 58 61 61 55 42 35 39 35 32 29 35 35 42 29 19 16 6 3 3 23 35 48 45 42 42 42
16 19 23 29 29 29 29 45 58 65 61 55 58 52 58 52 45 45 52 55 42 35 35 32 35 32 39 45 42 32 26 26 13 13 10 10 23 26 39 42 39 39 45
16 16 16 19 16 19 23 29 29 35 48 45 42 45 39 23 16 32 32 42 39 35 35 32 39 35 48 39 39 32 29 10 13 13 10 16 32 32 39 42 35 39 48
13 16 13 19 19 19 19 23 26 29 26 23 16 23 16 3 3 13 39 42 45 39 35 42 45 42 29 16 19 19 13 13 13 10 6 19 29 35 39 45 45 35 42
6 10 16 16 16 19 16 13 10 10 10 6 10 10 10 3 3 6 3 19 19 19 29 23 26 23 19 6 6 10 6 6 6 6 6 35 39 35 45 42 39 35 35
3 10 10 16 13 10 10 6 6 6 6 6 3 3 6 6 6 3 3 6 3 6 10 16 10 6 6 10 10 10 10 6 6 6 6 26 39 42 39 35 35 35 32
3 3 6 16 13 10 6 6 6 6 6 3 3 6 6 6 3 3 3 3 3 3 3 6 6 3 6 3 6 6 10 3 6 3 6 16 39 42 35 35 35 23 29
3 3 6 10 6 6 6 6 3 3 3 3 6 6 6 6 3 3 3 3 3 6 3 3 3 3 3 3 3 3 3 3 3 3 6 13 23 32 39 35 35 29 29
3 3 6 3 3 0 0 0 0 3 3 3 3 3 6 6 3 3 3 3 3 3 3 3 3 3 3 3 3 3 3 6 3 3 3 6 16 16 26 32 29 26 29
3 3 6 6 3 3 3 3 3 3 3 3 3 6 6 6 3 3 3 3 3 3 3 3 3 3 3 3 3 3 6 6 3 3 3 3 6 13 13 26 29 35 35
3 3 3 0 3 3 6 6 6 6 6 3 3 6 6 6 3 3 3 3 3 3 3 3 6 3 3 3 3 3 3 3 3 3 3 3 3 6 10 13 16 26 39
3 3 3 3 6 6 6 6 6 6 3 3 3 3 6 6 6 3 3 3 3 3 3 6 6 3 3 3 3 3 3 6 3 3 3 3 6 6 3 3 13 16 29
0 0 3 3 6 6 6 6 6 6 3 3 3 3 3 3 6 6 6 3 3 3 3 6 3 3 3 3 3 3 3 3 3 3 3 3 3 6 6 3 6 6 10
3 0 3 3 6 10 6 6 6 6 3 3 3 6 6 3 3 6 6 3 3 3 3 6 3 6 3 3 3 3 3 3 3 3 3 3 6 6 6 6 6 6 6
6 6 6 6 6 10 6 6 10 10 10 10 10 10 6 6 13 13 13 10 6 3 6 3 3 6 3 3 3 3 3 3 3 3 0 0 0 0 3 3 3 3 3
10 13 10 10 10 10 6 6 6 10 10 13 13 10 13 6 10 13 13 13 16 13 10 10 6 6 3 3 3 3 3 3 6 6 3 0 0 0 0 0 0 0 3
13 13 13 10 16 13 13 13 6 10 6 10 10 13 16 13 13 26 19 16 16 16 13 13 10 13 6 6 10 10 6 3 6 10 10 10 3 3 3 3 0 3 0
6 13 16 13 16 13 13 16 13 16 13 13 13 16 19 19 16 10 19 19 19 19 16 16 16 16 19 16 10 10 10 10 10 10 10 10 10 6 6 6 3 3 6

GEFSSE_con_cape1000_306.txt.gz
Probability
10 26 45 52 55 61 58 58 61 71 71 68 58 52 58 55 58 52 48 45 45 55 52 58 55 55 58 58 58 52 52 52 52 58 55 45 55 52 55 58 55 45 68
10 29 42 55 61 65 61 65 65 71 68 61 61 55 58 61 55 55 58 55 45 52 55 55 48 52 61 58 58 65 61 58 55 58 52 48 45 45 45 45 61 61 68
23 26 39 61 58 68 61 61 65 68 71 65 65 65 68 65 61 58 52 45 52 52 52 52 48 48 55 61 68 68 61 58 58 45 42 29 26 42 48 39 45 58 65
23 35 39 61 58 65 61 61 61 61 68 68 74 68 65 55 61 52 55 55 52 48 52 52 52 55 52 61 65 58 55 52 48 42 23 13 23 32 45 45 39 45 55
16 26 52 61 61 71 68 68 55 61 61 61 61 68 65 55 52 52 55 55 52 52 45 52 52 48 45 52 58 65 52 52 35 32 19 23 19 39 45 42 35 39 45
16 19 35 61 65 68 68 61 55 48 58 68 68 58 55 58 48 42 48 52 55 52 55 42 48 48 48 52 52 45 48 42 35 16 23 16 19 39 35 42 35 42 39
19 35 39 61 74 61 58 55 58 61 55 58 61 58 55 55 48 52 48 48 48 45 42 39 48 32 45 48 45 35 32 32 19 19 19 23 39 48 39 35 39 32 35
19 32 39 68 61 58 65 58 58 52 48 48 58 65 61 58 55 45 39 39 45 42 35 39 35 39 39 48 39 26 23 16 10 0 13 13 39 39 35 32 32 32 35
13 19 23 35 35 48 52 52 55 52 52 52 52 52 52 58 48 48 42 45 39 42 42 42 35 32 39 32 35 29 10 13 10 6 0 13 29 39 35 45 35 32 29
13 19 23 19 29 26 26 45 42 48 52 48 52 48 45 45 39 29 39 39 39 45 39 35 32 35 39 29 29 32 26 13 6 3 19 23 26 39 29 35 26 35 32
16 19 19 16 16 16 19 19 23 48 45 48 45 39 39 35 23 29 19 39 32 35 39 42 39 35 35 42 32 26 23 16 3 16 29 23 29 32 35 35 39 35 35
19 23 23 16 16 13 10 26 39 29 42 42 42 45 39 42 42 16 19 29 29 35 35 42 42 29 23 32 26 16 19 10 13 19 23 26 29 39 45 45 42 35 32
19 16 23 19 26 16 19 32 35 35 45 42 45 42 52 45 42 35 26 39 45 35 39 32 32 26 16 16 16 19 13 10 16 19 16 26 29 29 35 39 45 39 42
16 19 23 19 35 45 42 42 39 42 42 42 52 55 55 61 52 45 42 39 39 52 48 39 48 26 16 19 16 16 16 16 23 23 42 32 29 32 39 42 32 32 35
19 19 23 35 52 58 65 58 48 48 45 52 55 65 61 65 58 45 68 65 58 52 52 45 45 35 26 26 19 16 19 29 26 35 39 23 29 39 32 35 29 35 35
26 23 32 39 52 61 65 58 45 42 52 39 48 52 58 61 65 61 61 65 52 52 61 52 42 45 39 35 23 19 23 23 23 23 26 26 23 29 23 29 35 29 32
26 26 35 39 48 65 58 48 39 42 42 45 48 55 65 52 58 55 55 55 58 52 58 58 52 48 42 39 32 23 23 26 23 23 23 29 26 19 26 32 29 26 26
26 29 35 26 39 55 61 55 45 45 48 48 55 52 48 58 58 58 55 48 45 52 55 58 55 48 48 35 35 26 19 26 23 29 23 26 26 19 29 26 29 39 35
32 39 35 39 39 48 55 58 52 52 52 55 52 48 48 52 55 48 48 58 45 39 45 42 48 39 39 39 32 39 26 29 32 26 29 26 29 26 26 26 26 32 26
42 48 55 52 55 52 48 58 58 48 48 52 55 55 58 52 45 55 55 52 42 45 52 55 55 55 48 48 26 29 29 26 29 26 32 29 29 23 23 19 26 19 29
48 52 55 52 55 58 58 52 55 45 58 55 52 48 52 52 55 55 45 65 52 45 48 48 45 48 45 48 32 39 26 19 32 39 32 29 23 26 29 26 26 26 23
52 52 55 58 55 61 61 61 61 58 55 52 58 58 48 48 48 42 55 55 55 58 58 55 48 48 35 45 39 32 26 32 35 23 32 29 26 32 29 29 29 29 32
42 48 55 58 61 61 65 61 61 65 55 52 61 61 55 55 52 55 52 48 58 55 48 61 58 52 42 48 42 39 39 32 19 19 35 32 35 39 35 39 32 35 32
35 42 52 61 68 74 61 58 52 58 45 55 52 52 55 52 55 52 48 48 55 55 58 45 42 55 55 48 48 45 42 45 29 29 29 32 39 35 35 29 32 35 29
35 39 48 58 65 71 65 65 65 55 55 48 52 55 55 52 55 45 52 52 55 58 55 48 45 52 52 48 45 35 42 45 32 39 32 32 29 32 32 35 35 29 32
32 35 39 58 71 68 68 65 65 61 65 58 55 48 52 55 55 48 48 52 48 45 42 48 48 39 42 42 52 45 48 42 39 35 23 35 23 16 26 29 29 32 35

GEFSSE_con_cape1000_312.txt.gz
Probability
19 35 65 58 65 61 55 58 55 58 65 61 61 52 52 55 55 55 42 45 45 42 48 52 55 52 48 52 48 45 48 45 58 45 55 55 61 61 58 65 58 45 65
19 26 61 68 68 65 55 61 55 61 65 65 61 55 52 52 52 52 55 55 48 48 48 52 52 52 52 52 55 61 52 48 48 42 48 42 55 58 65 61 58 45 58
13 26 42 65 68 61 58 68 71 68 55 58 58 52 55 52 52 55 55 58 55 48 45 48 45 48 48 52 48 52 45 52 45 42 45 23 29 55 61 48 55 61 55
16 19 39 58 58 61 61 58 61 65 58 55 58 61 52 55 58 58 52 52 55 52 39 45 48 45 52 58 52 48 55 42 42 48 26 13 16 35 52 48 52 55 52
16 23 48 58 61 55 65 61 65 68 68 61 58 55 52 52 45 45 52 48 55 55 52 45 42 45 52 45 42 45 42 45 48 42 19 19 23 45 42 48 42 45 58
23 29 39 61 61 61 61 58 55 65 68 68 55 48 48 45 42 39 45 48 52 48 45 48 45 42 45 39 45 42 39 52 48 26 23 23 23 45 45 39 35 39 42
23 26 35 65 68 58 58 55 58 61 52 52 45 42 45 42 48 45 48 45 45 48 48 55 48 48 42 39 32 35 35 48 26 16 26 29 32 45 42 42 45 39 39
23 26 39 68 68 65 61 58 55 58 48 35 39 39 45 48 42 48 52 55 48 52 48 52 52 52 39 42 42 42 35 45 16 6 29 26 39 42 39 45 42 42 35
23 26 45 45 52 61 58 52 52 45 39 42 45 45 48 45 48 45 55 48 45 39 52 52 45 35 39 39 42 39 45 55 19 13 13 13 32 45 39 39 35 39 29
23 16 23 32 42 32 45 58 52 48 42 42 45 45 42 35 39 39 48 52 48 39 39 39 42 42 42 39 45 52 42 52 6 3 16 16 55 42 42 39 29 39 32
29 26 23 13 23 19 29 35 45 42 39 45 45 39 42 23 16 32 23 52 52 42 39 35 35 42 42 45 48 52 52 19 3 13 19 42 48 42 39 39 32 32 39
23 23 32 29 26 26 19 42 55 39 45 45 52 52 48 45 42 23 45 48 42 42 45 45 52 48 42 29 35 39 23 19 13 16 19 45 48 42 35 42 39 42 42
23 26 32 32 55 39 45 45 52 65 61 52 52 55 55 45 39 39 35 42 45 42 32 39 42 16 26 29 16 16 23 19 16 19 23 48 45 42 42 39 45 39 35
26 29 26 48 58 65 65 65 55 52 52 52 61 61 58 55 52 52 48 42 45 42 45 35 42 35 29 32 23 29 23 19 19 26 32 48 52 42 39 42 39 42 42
23 35 48 61 71 68 71 68 52 65 52 65 68 65 58 52 45 48 55 55 45 52 42 42 42 42 48 45 39 32 35 26 26 29 19 45 58 45 39 35 32 29 29
29 32 48 65 65 74 71 68 68 61 68 55 58 58 61 61 61 48 55 55 52 48 45 42 48 45 45 45 35 39 39 35 32 26 23 29 42 48 42 29 35 29 29
35 42 48 58 68 68 68 61 61 61 58 58 61 65 65 65 61 61 58 52 48 48 48 52 45 48 52 42 35 45 35 39 39 39 32 29 19 32 35 29 29 35 32
42 48 58 42 68 71 65 61 55 58 58 55 65 65 65 65 65 65 55 55 55 65 61 58 52 55 55 52 55 48 45 48 39 39 39 35 26 26 32 32 35 39 35
52 61 61 65 65 68 68 68 61 58 61 58 71 68 61 61 58 61 61 58 55 55 58 45 52 58 55 55 42 42 48 48 42 35 39 35 32 29 29 29 42 42 42
55 61 71 71 74 71 68 71 68 68 58 61 65 65 65 58 65 61 68 61 61 58 58 58 55 55 55 48 19 26 35 39 45 48 52 42 42 35 26 26 19 23 45
52 61 71 65 84 74 68 65 65 65 65 61 61 58 61 52 65 68 52 58 65 65 55 58 58 52 55 52 45 35 35 35 45 45 48 42 42 42 35 35 29 26 19
52 61 68 71 61 65 74 71 68 65 65 61 65 61 58 55 55 45 61 61 55 52 52 55 61 58 55 52 48 32 35 32 39 26 42 35 35 39 39 32 35 32 32
45 52 52 71 68 68 74 71 65 68 68 65 65 61 58 61 58 58 55 58 61 55 55 52 55 58 48 48 58 45 35 29 29 32 32 32 35 32 32 32 29 32 29
45 52 65 68 71 71 77 71 68 65 58 61 61 65 61 61 58 52 52 58 61 58 58 58 55 52 55 52 58 61 61 52 42 32 32 32 32 32 29 23 29 39 35
35 45 61 74 74 74 77 74 68 65 65 65 65 58 65 61 61 55 58 58 61 65 61 58 58 52 52 52 55 55 48 52 45 35 29 39 29 26 32 32 32 32 39
39 52 58 77 81 74 74 74 71 71 68 65 65 58 58 58 58 58 55 55 55 61 61 58 61 55 55 48 52 52 48 42 35 29 29 32 29 29 26 29 26 32 32

GEFSSE_con_cape1000_318.txt.gz
Probability
6 23 77 77 81 84 71 65 68 68 68 65 65 71 71 65 65 65 52 58 58 61 61 55 55 58 65 58 68 61 58 65 58 58 61 61 61 65 65 68 58 45 58
3 39 87 81 81 77 68 61 55 68 71 61 65 71 71 68 61 65 61 58 55 65 61 55 55 55 61 52 52 55 48 58 55 52 58 58 58 65 61 55 45 48 61
13 23 58 87 84 71 68 58 52 65 65 65 68 65 68 68 55 61 61 68 65 68 58 55 55 52 55 45 48 52 45 45 45 48 52 29 42 58 61 61 58 58 61
10 16 39 81 84 77 58 61 55 55 65 65 68 68 68 65 58 52 55 68 65 58 58 52 45 42 48 52 48 45 48 58 55 42 16 16 19 48 58 65 65 58 55
10 16 39 77 77 71 61 55 58 61 58 58 68 71 65 68 61 52 55 65 68 61 58 42 42 39 39 42 45 52 48 42 52 29 6 6 10 52 58 61 55 52 55
13 16 55 77 81 71 65 65 68 52 52 52 61 61 61 61 55 52 61 71 68 65 55 48 42 35 29 42 39 42 48 39 19 3 3 6 6 48 58 52 48 52 55
13 23 48 74 77 74 71 68 65 68 65 55 55 58 52 52 61 58 65 65 61 61 55 48 42 39 35 35 39 45 52 42 13 3 0 3 3 48 58 65 52 48 55
16 26 39 71 68 68 58 58 61 65 65 61 58 55 45 48 58 61 61 58 71 68 58 48 42 39 35 35 45 55 55 48 13 3 3 0 23 48 55 48 45 48 55
23 29 26 42 48 55 65 52 61 55 61 58 61 52 52 52 58 61 58 68 61 65 55 58 45 42 39 39 39 48 55 45 16 3 3 3 35 45 39 42 42 45 52
23 23 23 19 23 26 45 61 61 61 65 61 65 61 55 55 48 48 52 61 55 61 58 52 48 32 39 45 48 52 45 19 13 6 0 10 39 39 42 45 42 42 42
6 16 19 13 13 16 19 42 55 55 58 55 55 55 48 19 16 23 35 45 52 55 45 48 48 52 48 39 58 52 29 16 3 3 0 19 42 42 48 45 45 45 48
3 6 10 13 16 16 23 19 13 23 29 26 13 19 16 3 3 6 35 55 55 52 45 52 48 45 29 16 19 32 16 10 10 0 3 39 52 48 45 45 42 48 52
3 3 3 6 10 10 13 13 10 13 13 13 6 6 3 3 3 3 3 10 13 26 19 26 39 19 19 13 10 6 6 3 3 0 6 48 48 52 42 45 48 48 48
3 6 6 6 10 6 13 13 13 13 10 10 10 3 3 3 3 3 3 3 3 3 6 3 6 10 6 10 3 3 3 6 3 3 3 39 48 55 42 48 45 42 39
10 6 10 6 6 6 10 10 13 13 16 10 3 10 6 3 3 3 3 6 6 3 3 3 3 3 3 3 3 3 3 3 3 3 3 39 42 52 52 42 42 45 42
13 13 10 10 10 6 10 10 13 6 13 10 10 6 6 10 6 6 6 6 6 6 3 3 3 3 3 3 3 6 3 3 6 3 3 16 39 48 45 42 42 45 42
13 10 6 13 13 6 3 6 13 10 6 6 6 10 6 6 6 6 6 6 6 6 6 3 10 6 6 10 6 6 6 3 3 3 3 3 13 45 48 32 39 35 35
16 16 13 23 19 16 13 13 19 16 13 6 10 13 10 6 6 6 6 10 13 13 10 10 10 10 10 6 3 3 3 3 3 3 3 3 3 10 29 35 42 39 42
16 19 23 23 19 26 19 19 26 16 16 13 16 13 16 13 16 16 13 13 13 10 10 13 6 6 6 6 6 3 3 3 3 3 3 3 3 3 3 6 35 45 45
19 23 26 26 23 26 26 23 26 23 23 16 16 16 19 19 19 16 10 13 13 13 10 10 6 6 6 3 3 3 3 3 3 6 3 3 3 6 3 3 16 23 39
26 23 23 23 26 23 26 26 23 23 23 26 19 23 26 23 26 19 16 13 13 13 13 13 13 10 6 3 3 3 3 3 6 10 10 6 6 10 6 6 6 6 10
23 19 23 26 23 26 26 23 19 19 19 19 19 19 23 26 26 26 16 10 10 6 6 10 13 6 6 6 6 3 3 3 3 6 6 6 6 10 13 13 6 6 6
19 23 26 26 23 23 29 23 23 19 16 19 16 13 23 23 23 13 6 10 16 13 10 10 10 6 6 3 3 6 3 3 3 3 3 10 6 6 6 10 10 13 10
23 23 26 19 29 35 32 26 19 19 23 23 13 16 16 19 16 19 13 10 10 10 13 16 10 10 6 6 3 6 3 6 6 3 3 6 3 3 3 6 13 13 13
32 26 32 29 35 32 32 29 19 19 16 16 16 19 19 23 23 19 16 16 13 16 19 16 10 16 13 10 10 10 10 6 6 6 10 6 6 6 6 6 6 10 10
29 29 35 35 35 32 32 29 35 26 19 19 16 26 23 26 29 23 29 26 19 19 23 16 13 19 19 19 16 13 13 10 6 3 3 6 6 6 6 6 6 10 6

GEFSSE_con_cape1000_324.txt.gz
Probability
0 10 58 65 55 61 65 65 68 68 68 61 58 68 65 68 71 68 74 68 61 58 58 55 58 61 65 65 61 65 58 61 61 58 61 61 68 68 71 68 52 45 58
0 6 65 68 58 58 68 65 65 68 68 61 55 61 65 65 65 74 68 65 61 65 55 61 58 61 68 65 61 65 61 55 65 58 61 58 65 68 61 58 52 45 55
3 6 42 65 65 65 68 71 65 68 68 68 61 61 68 65 71 68 65 65 68 65 61 52 48 58 58 55 58 61 58 48 52 55 42 26 48 68 68 65 55 48 55
10 13 29 65 65 65 58 58 58 68 65 65 71 65 68 71 65 68 58 61 61 68 58 52 52 52 55 55 48 52 55 48 58 39 23 16 16 55 65 61 58 55 52
6 10 26 68 58 55 52 55 55 65 71 58 58 58 58 65 68 65 61 58 58 45 52 52 52 42 45 42 42 48 42 48 42 23 10 13 26 52 58 61 58 48 42
6 6 39 65 61 58 58 55 61 55 61 61 61 65 65 61 58 55 58 61 52 42 39 48 55 45 32 42 45 45 42 32 23 6 6 6 19 48 61 61 52 52 55
6 6 39 52 58 55 55 58 58 55 52 55 61 61 65 65 74 61 61 61 52 42 39 35 45 42 45 32 42 39 29 26 10 3 3 3 19 45 58 55 48 55 45
10 10 23 55 61 52 55 58 55 55 55 58 58 65 65 74 61 68 58 52 52 42 48 52 48 58 45 42 48 45 42 29 10 6 6 10 26 45 48 52 52 55 52
6 16 23 29 32 52 48 52 58 58 58 58 55 61 61 58 52 48 58 61 55 48 42 45 48 58 45 52 48 45 39 26 19 16 16 16 26 45 42 42 45 48 52
3 13 16 19 19 23 26 45 48 55 55 52 48 48 45 45 45 42 52 55 58 55 55 61 55 42 48 48 45 39 42 23 16 13 16 13 29 39 42 45 45 39 48
3 10 13 13 13 13 16 23 32 39 52 45 35 52 42 23 19 26 23 45 45 52 48 52 48 45 45 42 48 32 26 16 16 13 10 16 35 35 42 48 45 39 42
3 10 10 13 13 13 16 16 19 19 13 13 10 16 10 6 6 13 26 39 35 42 45 55 48 42 39 26 23 26 19 16 16 13 19 29 42 35 45 48 52 52 48
0 10 10 6 6 10 10 10 6 6 6 6 3 6 3 3 6 6 6 6 19 16 13 13 23 19 16 19 13 6 10 13 10 10 13 32 45 42 45 55 55 52 52
0 10 10 6 3 3 10 6 10 10 6 6 6 3 3 3 3 3 3 3 3 3 6 6 10 10 10 6 10 10 10 10 10 6 10 26 42 45 45 55 52 52 52
0 3 6 6 6 6 6 6 10 10 10 10 10 6 3 3 3 3 3 3 3 3 3 3 6 6 3 6 3 6 6 6 6 6 10 16 35 42 35 35 42 45 48
3 3 3 6 6 6 6 6 6 6 10 10 10 6 3 0 3 3 3 3 3 3 3 3 3 3 3 3 3 3 3 6 6 10 13 13 29 35 35 29 42 42 42
3 6 6 6 6 6 6 6 6 6 6 6 6 3 0 0 3 6 3 3 3 3 3 3 3 3 3 3 3 3 3 10 13 10 10 13 10 26 39 35 42 35 35
3 6 6 13 6 3 3 3 3 3 3 6 6 3 3 3 6 3 3 3 3 3 3 3 3 3 3 3 6 6 6 6 6 6 6 6 10 10 19 39 35 39 35
3 3 6 6 3 3 3 3 3 3 3 3 6 6 3 6 3 3 0 3 3 3 3 3 3 3 3 6 6 6 6 6 10 6 6 6 3 6 13 6 23 39 35
3 3 6 0 0 3 6 6 3 3 3 3 3 3 3 3 3 3 6 6 3 3 3 3 6 6 6 6 6 6 6 6 6 6 6 3 6 10 6 6 6 10 23
3 6 6 3 6 6 6 6 3 3 3 3 3 3 3 3 10 6 6 3 3 3 3 6 10 6 6 6 6 6 6 6 6 3 6 6 10 10 3 3 6 10 13
13 10 10 6 3 6 6 6 3 3 3 0 0 6 3 6 6 6 0 0 0 3 3 3 6 6 6 6 6 6 6 3 3 3 3 6 10 13 13 6 6 10 10
10 10 13 3 10 10 6 3 6 10 10 10 6 6 3 6 6 3 3 3 6 6 6 6 6 6 6 6 3 3 3 3 3 3 3 3 10 13 10 6 10 6 6
6 6 10 6 6 10 6 6 6 6 6 3 0 3 3 0 0 3 3 6 6 6 6 6 6 6 6 6 3 3 3 3 10 10 3 3 6 10 10 6 6 10 10
10 10 10 13 6 3 6 6 6 6 3 0 0 6 10 10 13 13 6 6 6 6 6 6 10 10 6 6 6 3 3 3 3 6 10 10 6 6 6 6 6 10 10
13 16 10 10 10 6 10 10 6 6 10 10 10 13 13 13 13 13 16 13 10 6 6 10 10 10 10 10 6 6 6 10 10 10 10 10 10 6 6 6 6 6 6

GEFSSE_con_cape1000_330.txt.gz
Probability
6 16 52 61 58 61 71 65 52 45 61 61 68 71 68 68 65 65 61 65 58 65 71 65 58 61 61 65 68 65 61 61 61 52 55 52 61 58 65 61 52 39 55
13 19 55 58 68 61 58 52 48 55 65 68 65 68 71 65 68 71 52 58 58 55 58 58 58 58 58 58 65 61 65 65 58 55 55 58 61 65 58 45 45 39 52
16 26 39 68 58 65 58 58 52 61 61 65 71 71 71 68 65 58 55 55 52 52 52 58 61 58 61 58 58 58 58 61 58 58 58 45 52 65 58 55 45 48 45
19 26 39 65 74 68 65 58 61 58 58 58 58 68 71 71 61 61 55 52 52 58 52 52 52 48 65 52 52 52 55 58 48 52 29 26 26 52 65 52 48 42 42
19 26 45 74 68 61 55 61 55 52 58 58 55 58 65 68 65 58 58 45 45 42 45 45 42 55 52 52 45 42 42 39 45 32 26 29 35 52 61 58 58 48 48
6 19 42 65 61 58 55 55 55 58 65 58 48 61 58 52 55 52 45 48 45 45 45 45 48 42 48 45 39 32 29 32 23 19 23 19 26 45 65 55 48 48 42
6 23 29 58 58 55 45 52 61 65 58 65 58 55 52 52 48 52 48 39 45 45 39 45 45 42 39 45 39 32 26 23 19 13 19 23 32 48 58 61 55 48 45
6 10 26 55 58 58 52 61 61 48 58 61 58 58 55 45 45 48 39 39 39 39 39 39 42 42 39 39 32 29 26 23 6 0 16 19 32 55 48 52 52 45 45
6 13 19 23 29 58 61 52 55 52 45 45 52 52 48 39 35 39 48 42 35 39 39 42 42 35 35 35 42 42 32 32 16 19 10 19 32 48 39 52 48 45 45
10 13 16 19 23 26 32 45 42 48 45 48 58 55 55 45 45 42 48 48 39 45 42 32 35 35 35 32 39 42 32 19 6 6 13 19 39 39 32 39 42 45 45
13 16 19 19 19 19 16 26 45 42 52 45 55 52 58 48 35 45 32 45 42 42 42 35 35 39 39 32 29 32 23 10 6 6 16 23 42 32 39 42 39 42 42
19 19 23 16 19 23 19 29 32 26 45 45 52 52 45 52 48 26 32 35 29 32 32 26 29 35 35 23 19 23 10 10 6 3 16 39 39 35 35 39 42 39 42
19 23 26 26 29 26 26 29 35 39 35 29 42 52 52 35 35 39 32 48 39 19 19 29 26 29 26 29 29 13 6 3 13 10 19 32 39 39 42 52 45 48 42
16 16 16 26 39 32 32 29 29 29 39 39 39 45 42 35 35 39 52 35 39 48 32 39 42 26 26 19 16 16 6 19 13 19 35 29 32 35 48 52 52 52 48
19 23 26 29 39 42 45 35 26 42 32 39 48 45 39 32 26 26 45 52 32 32 29 32 32 26 26 23 29 19 26 23 10 10 19 35 29 42 45 42 45 45 42
26 26 32 42 45 48 48 48 39 35 55 32 39 42 42 39 42 32 42 39 32 29 32 32 29 32 26 29 23 23 23 23 26 13 16 29 32 29 45 45 35 39 48
26 29 29 35 42 52 45 35 39 32 39 42 42 45 39 35 39 35 39 42 35 32 26 26 26 29 39 26 29 29 23 19 19 29 26 39 35 32 42 45 39 29 39
23 29 29 19 29 48 48 52 32 32 35 42 45 42 42 39 45 48 42 39 35 29 35 35 32 29 32 35 29 32 35 39 23 29 35 35 39 29 29 39 35 32 39
35 35 35 35 35 35 48 42 39 48 42 35 35 35 42 42 39 55 48 52 45 39 35 16 26 32 29 39 32 39 35 26 29 23 32 32 29 32 35 32 26 32 32
42 45 42 45 48 55 48 48 45 48 42 39 42 45 42 52 52 52 48 55 35 39 39 42 55 42 42 45 16 26 32 29 26 39 35 35 32 29 35 29 35 23 26
42 45 55 52 58 55 52 52 48 42 42 39 39 45 45 45 52 52 42 58 39 39 35 29 35 29 35 42 39 29 23 19 19 29 29 26 26 26 29 35 35 39 32
35 45 61 58 58 58 58 65 55 52 45 39 39 48 52 45 45 35 48 42 52 52 45 42 42 32 35 35 29 29 29 19 26 10 23 32 23 26 23 19 32 39 29
35 48 55 68 61 65 58 55 58 58 48 45 48 48 48 42 39 48 52 45 55 35 39 45 42 45 42 45 26 26 19 16 19 16 19 23 26 29 23 19 26 42 35
42 48 58 68 68 65 61 55 55 52 39 48 48 52 52 52 52 48 48 52 55 52 55 42 45 48 48 42 35 35 29 29 26 26 19 23 19 26 23 19 23 29 32
39 45 55 65 68 65 65 68 68 55 52 45 45 55 58 52 48 45 52 55 55 55 55 55 55 52 52 45 32 32 26 35 23 23 23 32 32 19 16 19 29 29 26
42 42 55 61 68 65 65 65 71 61 55 45 48 42 52 48 52 45 45 52 55 52 52 55 52 48 52 55 48 42 35 23 23 26 26 32 39 29 19 23 23 23 23